GFSFLT2_700_temp_000.txt.gz
Temp
1 1 1 -0 -1 -1 -1 -1 -1 -2 -2 -2 -2 -3 -3 -3 -4 -5 -5 -6 -7 -7 -8 -8 -9 -10 -11
1 2 0 -0 -1 -1 -1 -1 -2 -2 -2 -2 -2 -3 -3 -4 -5 -5 -6 -6 -7 -8 -9 -9 -10 -10 -12
2 1 1 1 -1 -1 -1 -2 -2 -2 -2 -2 -2 -4 -4 -4 -5 -6 -6 -7 -8 -9 -9 -10 -10 -11 -11
1 1 1 0 -1 -2 -1 -2 -2 -2 -2 -2 -3 -4 -4 -5 -6 -6 -7 -8 -9 -9 -10 -10 -11 -11 -11
1 1 1 1 -1 -2 -2 -2 -2 -3 -2 -3 -4 -4 -5 -5 -6 -7 -8 -9 -9 -10 -10 -11 -11 -11 -12
1 1 0 -1 -0 -2 -2 -3 -3 -2 -3 -4 -4 -5 -5 -6 -7 -8 -8 -9 -9 -10 -10 -11 -11 -11 -11
1 1 -0 -1 -1 -1 -2 -3 -3 -3 -4 -5 -4 -5 -6 -7 -7 -8 -9 -9 -9 -10 -10 -11 -11 -11 -12
1 -0 -1 -1 -0 -1 -2 -3 -3 -4 -5 -5 -5 -6 -6 -7 -8 -9 -9 -9 -9 -10 -10 -11 -11 -12 -12
-1 -1 -1 -1 -0 -1 -3 -3 -4 -4 -5 -5 -6 -6 -7 -8 -8 -9 -9 -9 -10 -10 -11 -11 -11 -12 -12
-1 -1 -2 -1 -1 -2 -3 -4 -4 -4 -5 -5 -6 -7 -7 -8 -9 -9 -10 -10 -10 -11 -11 -11 -11 -12 -12
-2 -2 -2 -2 -2 -3 -4 -4 -4 -6 -5 -6 -7 -8 -8 -9 -10 -10 -10 -10 -10 -11 -11 -12 -12 -12 -12
-2 -2 -1 -2 -3 -3 -4 -4 -5 -6 -5 -6 -7 -8 -9 -9 -9 -10 -9 -10 -10 -11 -11 -12 -12 -12 -12
-2 -2 -2 -4 -4 -4 -5 -4 -6 -5 -6 -7 -8 -8 -9 -9 -9 -10 -10 -10 -10 -11 -11 -12 -12 -11 -11
-2 -1 -3 -4 -4 -5 -4 -5 -6 -6 -7 -7 -8 -8 -9 -9 -9 -9 -10 -11 -11 -11 -11 -12 -11 -11 -11
-2 -2 -3 -4 -5 -5 -4 -7 -5 -6 -7 -7 -8 -8 -9 -9 -10 -10 -11 -11 -11 -11 -10 -11 -12 -10 -11
-2 -3 -3 -5 -5 -4 -5 -5 -6 -7 -7 -8 -9 -9 -10 -11 -11 -10 -10 -11 -11 -11 -10 -10 -11 -10 -10
-2 -3 -4 -5 -4 -5 -7 -6 -6 -7 -8 -8 -8 -9 -9 -9 -10 -10 -10 -10 -10 -11 -11 -11 -11 -11 -11

GFSFLT2_700_temp_003.txt.gz
Temp
1 1 1 1 1 0 1 -0 -0 -1 -1 -1 -2 -2 -3 -3 -3 -3 -3 -4 -5 -5 -6 -7 -7 -8 -9
1 1 1 1 0 0 -0 -1 -1 -1 -1 -2 -2 -3 -3 -3 -3 -4 -4 -5 -6 -6 -7 -8 -8 -9 -9
1 0 -0 1 0 -0 -0 -1 -2 -1 -2 -2 -2 -3 -3 -3 -4 -4 -4 -5 -6 -7 -8 -8 -8 -9 -9
1 -1 -0 0 0 0 0 -1 -2 -1 -2 -2 -3 -3 -3 -3 -4 -5 -5 -6 -7 -8 -8 -8 -9 -9 -10
0 -0 -1 -1 -1 -0 -0 -1 -1 -2 -2 -2 -3 -3 -3 -4 -4 -5 -6 -7 -7 -8 -8 -8 -9 -9 -10
-1 -1 -1 -1 -2 -1 -1 0 -1 -2 -2 -3 -3 -3 -4 -4 -5 -6 -7 -7 -8 -8 -8 -9 -9 -9 -10
-1 -1 -1 -1 -2 -2 -0 -1 -1 -2 -3 -4 -4 -4 -4 -5 -6 -7 -7 -8 -8 -9 -9 -9 -9 -10 -11
-1 -1 -2 -2 -2 -2 -2 -2 -2 -2 -3 -4 -4 -4 -5 -5 -6 -7 -7 -8 -9 -9 -9 -9 -9 -10 -11
-1 -1 -2 -2 -2 -3 -3 -3 -2 -3 -4 -4 -4 -5 -5 -6 -7 -8 -8 -9 -9 -9 -9 -10 -10 -10 -11
-1 -1 -2 -1 -1 -2 -2 -3 -3 -3 -4 -4 -5 -5 -6 -7 -7 -8 -8 -9 -9 -9 -10 -10 -10 -11 -11
-1 -2 -1 -2 -2 -2 -2 -2 -4 -4 -5 -4 -5 -6 -7 -7 -8 -8 -9 -9 -9 -9 -9 -10 -11 -11 -11
-1 -1 -2 -1 -2 -3 -3 -4 -4 -5 -5 -5 -5 -6 -7 -8 -8 -9 -9 -9 -9 -9 -10 -10 -11 -11 -11
-2 -2 -2 -2 -2 -3 -3 -4 -5 -5 -5 -5 -6 -7 -7 -8 -8 -8 -8 -9 -9 -9 -10 -11 -11 -10 -11
-2 -2 -2 -2 -2 -3 -4 -4 -5 -5 -5 -6 -7 -7 -7 -8 -8 -8 -8 -9 -10 -10 -10 -11 -10 -10 -10
-2 -2 -2 -3 -3 -3 -4 -4 -5 -5 -5 -6 -7 -7 -8 -8 -8 -8 -9 -10 -10 -10 -10 -10 -11 -10 -10
-2 -2 -2 -3 -3 -3 -4 -5 -5 -5 -6 -7 -7 -8 -8 -9 -9 -9 -9 -10 -10 -10 -10 -9 -10 -11 -10
-2 -2 -2 -3 -3 -4 -5 -5 -5 -6 -7 -7 -8 -8 -8 -8 -9 -9 -9 -10 -10 -10 -11 -10 -10 -11 -11

GFSFLT2_700_temp_006.txt.gz
Temp
2 2 2 2 1 -1 -1 0 -0 0 0 0 -1 -1 -1 -1 -2 -2 -3 -3 -3 -3 -4 -4 -5 -6 -7
2 1 1 1 0 -1 -1 -1 -1 0 1 0 -1 -2 -1 -2 -2 -3 -3 -3 -4 -4 -4 -5 -6 -7 -7
1 1 -1 -1 -1 -1 -1 -2 -2 -1 0 -0 -1 -2 -2 -2 -3 -3 -4 -4 -4 -4 -5 -6 -7 -7 -8
-1 0 -0 -1 -1 -1 -2 -2 -2 -2 -1 -0 -2 -2 -3 -3 -4 -4 -4 -4 -4 -5 -6 -7 -8 -8 -9
-0 -1 -1 -1 -1 -2 -2 -2 -2 -2 -2 -2 -2 -3 -3 -3 -4 -4 -4 -5 -5 -6 -7 -8 -8 -9 -9
0 -0 -1 -1 -1 -1 -1 -1 -2 -2 -2 -2 -2 -2 -3 -3 -4 -4 -4 -5 -5 -7 -7 -8 -9 -9 -9
-1 -0 0 -1 -1 -1 -1 -2 -2 -3 -2 -2 -2 -3 -3 -4 -4 -4 -5 -5 -6 -7 -8 -9 -9 -9 -9
-1 -1 -1 -0 -1 -1 -1 -2 -2 -2 -2 -3 -3 -3 -4 -4 -4 -5 -5 -6 -7 -8 -8 -9 -9 -9 -9
-1 -1 -1 -1 -1 -1 -1 -2 -2 -2 -3 -3 -3 -3 -4 -4 -5 -5 -6 -7 -7 -8 -8 -9 -9 -9 -10
-2 -2 -2 -2 -2 -1 -1 -2 -1 -2 -3 -3 -3 -5 -5 -5 -5 -5 -6 -7 -8 -8 -8 -9 -9 -10 -10
-2 -2 -2 -1 -1 -2 -1 -2 -2 -2 -3 -3 -3 -4 -5 -5 -5 -6 -6 -7 -8 -8 -9 -9 -10 -10 -10
-3 -2 -1 -2 -2 -2 -2 -2 -2 -2 -3 -3 -4 -5 -5 -5 -6 -7 -7 -8 -8 -9 -9 -9 -10 -10 -10
-2 -2 -2 -2 -2 -3 -2 -2 -3 -3 -4 -5 -5 -5 -5 -6 -6 -8 -8 -8 -9 -9 -9 -10 -10 -10 -10
-2 -2 -2 -2 -2 -2 -3 -2 -3 -4 -5 -5 -5 -5 -6 -6 -7 -8 -8 -8 -9 -9 -9 -9 -10 -9 -9
-3 -2 -2 -2 -2 -2 -3 -4 -4 -4 -5 -5 -5 -6 -7 -7 -8 -7 -8 -8 -9 -9 -9 -9 -10 -10 -10
-3 -3 -3 -3 -3 -3 -4 -4 -4 -5 -5 -5 -6 -7 -8 -8 -7 -8 -8 -9 -9 -10 -10 -9 -10 -11 -10
-3 -3 -3 -3 -3 -4 -4 -4 -5 -5 -5 -6 -7 -7 -7 -8 -8 -8 -9 -9 -10 -10 -10 -10 -10 -11 -11

GFSFLT2_700_temp_009.txt.gz
Temp
1 1 1 0 1 1 1 1 0 -1 -1 -2 -1 -2 -2 -2 -2 -2 -2 -2 -2 -2 -3 -3 -3 -4 -4
1 1 1 0 0 1 0 0 0 -1 -1 -1 -2 -1 -1 -1 -2 -2 -3 -2 -2 -3 -3 -3 -4 -4 -5
0 0 -0 -0 1 0 -0 -0 -0 -0 -1 -1 -2 -1 -2 -2 -3 -3 -2 -3 -3 -3 -4 -4 -4 -5 -6
-1 -0 -0 -0 -0 -0 -0 -1 -0 -1 -1 -2 -2 -2 -2 -2 -3 -3 -2 -3 -3 -3 -4 -4 -5 -6 -6
-1 -1 -0 -0 1 -1 -1 -1 -1 -1 -1 -1 -2 -2 -2 -2 -3 -3 -3 -4 -4 -4 -4 -5 -5 -6 -7
-2 -2 -2 -1 -1 -1 -1 -1 -1 -1 -1 -1 -1 -2 -3 -2 -3 -2 -3 -4 -4 -5 -5 -5 -6 -7 -8
-3 -2 -2 -2 -2 -2 -0 -1 -2 -1 -2 -1 -2 -2 -3 -3 -3 -3 -4 -5 -5 -5 -5 -6 -7 -8 -8
-3 -2 -2 -2 -2 -2 -2 -1 -2 -2 -2 -2 -2 -2 -2 -3 -3 -3 -5 -5 -5 -5 -6 -7 -7 -8 -8
-3 -3 -2 -3 -2 -2 -2 -2 -2 -2 -2 -1 -2 -2 -2 -3 -3 -4 -5 -5 -5 -6 -6 -7 -8 -8 -8
-3 -3 -3 -3 -3 -2 -2 -2 -2 -2 -2 -2 -2 -2 -2 -3 -4 -5 -5 -5 -6 -6 -7 -8 -8 -8 -9
-2 -3 -3 -3 -2 -2 -2 -2 -2 -2 -2 -2 -2 -3 -3 -4 -5 -5 -5 -6 -6 -7 -8 -8 -8 -8 -9
-3 -4 -3 -3 -3 -3 -3 -2 -3 -3 -4 -3 -3 -3 -4 -5 -5 -5 -6 -6 -7 -7 -7 -8 -8 -9 -9
-4 -4 -3 -3 -3 -3 -3 -3 -3 -3 -3 -3 -4 -4 -4 -5 -6 -6 -6 -7 -7 -8 -8 -8 -9 -8 -9
-4 -3 -4 -3 -3 -3 -3 -3 -4 -4 -4 -4 -4 -5 -5 -6 -7 -7 -7 -7 -7 -8 -8 -9 -9 -9 -9
-4 -3 -4 -3 -3 -3 -4 -4 -5 -5 -5 -5 -5 -6 -6 -6 -7 -7 -7 -8 -8 -9 -9 -8 -9 -10 -9
-4 -4 -4 -4 -3 -4 -5 -5 -5 -5 -5 -6 -6 -6 -6 -7 -7 -8 -8 -8 -8 -9 -9 -9 -10 -11 -10
-5 -4 -4 -5 -5 -6 -5 -5 -5 -6 -6 -6 -6 -7 -7 -7 -8 -8 -8 -9 -9 -9 -10 -10 -10 -11 -11

GFSFLT2_700_temp_012.txt.gz
Temp
0 0 0 0 1 1 1 1 0 1 1 0 1 0 -1 -1 -1 -2 -1 -2 -2 -2 -3 -2 -2 -3 -3
0 -0 -0 -0 0 0 1 0 0 -0 -0 -0 0 -0 -1 -1 -1 -1 -2 -2 -2 -2 -3 -3 -3 -3 -3
-1 -1 -1 -1 -1 -1 -0 0 -1 -1 -1 -1 -1 -1 -1 -1 -2 -2 -2 -3 -3 -2 -3 -3 -3 -3 -4
-3 -2 -2 -1 -2 -2 -1 -1 -0 -1 -1 -1 -1 -1 -1 -1 -1 -2 -2 -2 -3 -3 -3 -3 -3 -4 -4
-4 -4 -3 -3 -3 -3 -2 -2 -2 -2 -1 -2 -2 -1 -1 -1 -2 -2 -2 -2 -2 -3 -3 -3 -4 -5 -5
-4 -4 -4 -5 -5 -5 -3 -3 -2 -2 -2 -1 -2 -2 -1 -2 -2 -2 -2 -2 -2 -3 -3 -4 -4 -4 -5
-5 -4 -4 -3 -4 -4 -4 -3 -3 -2 -2 -2 -2 -2 -2 -2 -2 -2 -3 -3 -3 -3 -3 -4 -4 -5 -6
-5 -4 -4 -4 -4 -4 -4 -4 -4 -3 -3 -3 -2 -2 -2 -2 -2 -3 -3 -3 -3 -3 -4 -4 -5 -5 -7
-5 -4 -4 -4 -4 -5 -5 -4 -4 -3 -3 -2 -2 -3 -2 -2 -3 -3 -4 -3 -4 -4 -4 -5 -6 -6 -7
-5 -4 -4 -4 -5 -6 -5 -4 -4 -3 -4 -3 -3 -3 -3 -3 -3 -3 -3 -4 -4 -4 -5 -6 -6 -7 -7
-5 -5 -4 -4 -5 -5 -4 -4 -4 -3 -3 -3 -3 -3 -3 -3 -3 -3 -4 -4 -5 -6 -6 -6 -7 -7 -7
-6 -5 -6 -5 -5 -4 -4 -4 -4 -3 -4 -4 -3 -4 -4 -4 -4 -4 -5 -5 -7 -7 -7 -7 -7 -7 -7
-7 -6 -6 -5 -5 -4 -4 -4 -4 -4 -4 -4 -5 -5 -5 -5 -5 -5 -5 -6 -6 -7 -7 -7 -8 -8 -8
-6 -6 -6 -5 -5 -4 -5 -5 -4 -5 -5 -5 -5 -5 -5 -5 -5 -6 -6 -6 -7 -8 -8 -8 -8 -8 -8
-7 -7 -6 -6 -5 -5 -6 -6 -6 -6 -5 -5 -5 -5 -5 -6 -6 -6 -7 -8 -8 -8 -8 -9 -9 -9 -9
-8 -8 -7 -6 -6 -6 -6 -6 -6 -6 -6 -6 -6 -6 -6 -7 -7 -7 -8 -8 -8 -8 -9 -9 -9 -10 -10
-9 -8 -7 -7 -7 -7 -7 -6 -6 -6 -6 -6 -6 -6 -7 -7 -8 -8 -8 -8 -9 -9 -9 -10 -10 -11 -11

GFSFLT2_700_temp_015.txt.gz
Temp
-2 -2 -1 -1 -1 -2 -1 -1 -1 -0 0 0 0 -0 -1 -1 -1 -0 0 0 -1 -2 -2 -2 -2 -2 -3
-2 -2 -2 -1 -1 -1 -2 -2 -1 -1 -1 -1 -0 -1 -1 -0 -1 -0 -0 -0 -1 -1 -1 -2 -2 -2 -2
-4 -3 -3 -3 -2 -2 -2 -2 -2 -2 -2 -2 -1 -1 -2 -1 -1 -2 -1 -1 -1 -1 -2 -2 -2 -2 -3
-6 -4 -4 -3 -4 -4 -3 -3 -2 -3 -2 -2 -2 -2 -2 -2 -2 -1 -2 -2 -1 -1 -1 -1 -2 -2 -3
-6 -6 -5 -4 -5 -4 -4 -4 -3 -3 -3 -2 -3 -2 -1 -2 -2 -2 -2 -1 -1 -2 -2 -2 -2 -2 -3
-9 -8 -7 -7 -6 -5 -5 -5 -3 -3 -4 -2 -3 -2 -2 -3 -2 -2 -2 -2 -2 -2 -2 -2 -3 -3 -3
-11 -10 -9 -8 -7 -6 -6 -5 -4 -4 -4 -4 -4 -3 -3 -3 -2 -2 -2 -3 -3 -3 -3 -3 -3 -3 -3
-11 -10 -10 -9 -8 -7 -6 -5 -4 -4 -4 -3 -4 -3 -2 -3 -3 -2 -3 -3 -3 -3 -3 -3 -3 -4 -4
-11 -10 -10 -9 -8 -7 -6 -6 -5 -4 -5 -5 -5 -3 -3 -3 -3 -3 -3 -3 -3 -4 -4 -4 -4 -4 -4
-10 -9 -9 -8 -7 -7 -7 -7 -7 -6 -5 -5 -5 -4 -4 -3 -3 -3 -3 -3 -4 -5 -5 -5 -5 -5 -6
-11 -10 -9 -8 -7 -7 -8 -7 -7 -6 -6 -5 -5 -4 -4 -4 -4 -4 -4 -4 -5 -5 -5 -5 -5 -5 -7
-11 -10 -9 -8 -8 -7 -7 -7 -6 -6 -5 -5 -5 -4 -4 -4 -4 -4 -4 -5 -6 -6 -6 -5 -6 -8 -7
-11 -10 -9 -8 -7 -7 -7 -6 -6 -6 -5 -5 -5 -5 -5 -5 -5 -5 -5 -6 -6 -6 -6 -7 -8 -7 -7
-10 -10 -9 -9 -8 -8 -7 -7 -7 -7 -7 -6 -6 -6 -6 -6 -6 -6 -6 -7 -6 -6 -8 -7 -7 -8 -8
-10 -10 -10 -9 -9 -9 -8 -8 -8 -8 -7 -7 -7 -7 -7 -7 -7 -6 -6 -8 -7 -7 -8 -8 -8 -8 -9
-11 -11 -10 -10 -10 -9 -8 -9 -9 -9 -8 -8 -8 -7 -7 -7 -7 -7 -7 -7 -8 -8 -8 -8 -9 -9 -10
-12 -11 -11 -10 -10 -9 -9 -9 -9 -9 -8 -8 -10 -7 -7 -7 -7 -7 -8 -8 -8 -9 -9 -9 -10 -10 -10

GFSFLT2_700_temp_018.txt.gz
Temp
-3 -2 -2 -2 -2 -3 -3 -3 -3 -2 -2 -2 -2 -2 -1 -1 -1 -1 -1 -1 -1 -1 -1 -1 -1 -1 -2
-2 -2 -2 -2 -3 -3 -4 -3 -3 -3 -3 -3 -3 -2 -2 -2 -1 -1 -1 -1 -1 -1 -1 -1 -2 -1 -2
-4 -3 -3 -3 -3 -4 -4 -4 -5 -4 -3 -4 -3 -3 -3 -2 -2 -2 -2 -1 -1 -2 -1 -1 -2 -1 -1
-7 -5 -4 -4 -5 -5 -5 -5 -5 -5 -5 -4 -4 -3 -3 -3 -3 -3 -2 -2 -2 -0 -1 -1 -1 -1 -0
-9 -9 -8 -7 -8 -8 -8 -7 -6 -6 -6 -5 -5 -4 -4 -3 -3 -3 -3 -3 -2 -2 -1 -1 -1 -1 -2
-12 -11 -11 -11 -11 -11 -11 -10 -8 -7 -6 -5 -5 -5 -4 -3 -3 -3 -3 -3 -3 -3 -2 -2 -2 -2 -1
-13 -13 -13 -12 -12 -12 -11 -11 -10 -8 -8 -6 -6 -5 -5 -4 -3 -3 -4 -4 -3 -3 -3 -2 -2 -2 -2
-13 -14 -14 -13 -13 -13 -12 -11 -10 -8 -8 -6 -6 -5 -4 -4 -3 -3 -3 -3 -3 -3 -3 -2 -3 -3 -3
-13 -13 -13 -12 -12 -12 -11 -11 -10 -9 -7 -7 -5 -5 -4 -4 -4 -4 -3 -3 -3 -3 -3 -3 -3 -4 -4
-13 -13 -12 -12 -12 -12 -11 -10 -10 -9 -8 -8 -7 -6 -5 -4 -4 -6 -5 -3 -3 -3 -3 -3 -4 -5 -5
-13 -12 -12 -12 -11 -11 -11 -10 -9 -9 -8 -8 -7 -7 -7 -7 -5 -5 -5 -5 -3 -4 -4 -6 -6 -6 -6
-13 -12 -12 -11 -11 -11 -10 -10 -9 -8 -8 -7 -7 -7 -6 -6 -6 -5 -5 -5 -5 -6 -6 -7 -6 -7 -7
-13 -12 -12 -11 -11 -11 -10 -10 -9 -8 -8 -7 -7 -7 -6 -6 -6 -6 -6 -6 -6 -7 -8 -8 -7 -7 -7
-12 -12 -12 -12 -11 -11 -10 -10 -10 -9 -9 -8 -7 -7 -7 -7 -7 -7 -7 -7 -7 -8 -9 -8 -8 -8 -8
-12 -12 -12 -12 -12 -11 -11 -11 -10 -10 -9 -9 -9 -8 -8 -8 -8 -7 -8 -8 -9 -9 -9 -8 -8 -10 -9
-13 -14 -13 -12 -12 -12 -11 -11 -10 -10 -10 -10 -9 -9 -9 -8 -8 -8 -9 -9 -9 -9 -10 -10 -9 -9 -9
-14 -14 -13 -13 -12 -12 -11 -11 -10 -11 -11 -10 -9 -9 -11 -10 -9 -9 -9 -9 -9 -9 -9 -10 -10 -10 -10

GFSFLT2_700_temp_021.txt.gz
Temp
-6 -5 -4 -4 -4 -3 -3 -3 -2 -2 -2 -2 -3 -3 -2 -2 -2 -2 -2 -2 -2 -2 -1 -1 -1 -1 -1
-7 -6 -6 -6 -5 -4 -4 -3 -3 -2 -3 -3 -3 -3 -3 -3 -3 -2 -2 -2 -2 -2 -2 -2 -0 -1 -1
-11 -10 -9 -9 -8 -7 -5 -4 -4 -4 -4 -4 -4 -4 -4 -4 -3 -3 -3 -3 -2 -2 -2 -2 -1 -1 -1
-13 -12 -12 -11 -11 -10 -8 -7 -6 -6 -6 -6 -6 -6 -6 -5 -4 -4 -3 -3 -3 -3 -2 -2 -1 -1 -1
-14 -13 -13 -12 -12 -11 -11 -10 -9 -9 -9 -8 -8 -7 -7 -6 -5 -4 -4 -3 -3 -3 -3 -2 -2 -1 0
-15 -15 -14 -13 -13 -13 -12 -13 -13 -12 -11 -10 -10 -9 -7 -7 -6 -5 -4 -3 -3 -3 -3 -3 -2 -2 -1
-15 -15 -14 -14 -14 -13 -13 -13 -13 -12 -12 -11 -11 -10 -8 -7 -6 -5 -4 -4 -3 -3 -3 -3 -2 -3 -2
-15 -15 -14 -14 -14 -15 -15 -14 -13 -12 -12 -12 -10 -9 -8 -7 -6 -5 -4 -4 -4 -3 -4 -4 -3 -3 -2
-14 -15 -14 -14 -14 -14 -13 -13 -12 -11 -11 -11 -10 -10 -9 -7 -6 -5 -5 -5 -4 -4 -4 -3 -3 -3 -2
-14 -14 -14 -14 -14 -13 -13 -13 -12 -11 -11 -11 -10 -11 -10 -7 -6 -6 -6 -5 -4 -4 -3 -3 -3 -3 -2
-14 -14 -14 -13 -13 -13 -12 -13 -12 -11 -11 -11 -10 -10 -10 -8 -7 -7 -7 -6 -6 -5 -4 -4 -3 -3 -4
-14 -14 -13 -13 -12 -12 -13 -13 -12 -12 -11 -11 -10 -9 -9 -8 -7 -7 -7 -6 -5 -5 -5 -4 -4 -5 -5
-14 -13 -13 -12 -13 -13 -13 -12 -12 -12 -11 -10 -10 -9 -8 -8 -7 -7 -7 -6 -6 -6 -6 -6 -6 -6 -6
-14 -13 -13 -14 -14 -14 -13 -12 -12 -12 -11 -11 -10 -9 -9 -8 -8 -7 -7 -8 -8 -8 -8 -8 -8 -8 -7
-14 -15 -15 -14 -14 -13 -13 -12 -12 -11 -11 -11 -11 -10 -9 -9 -9 -8 -8 -9 -9 -9 -9 -9 -9 -9 -9
-15 -15 -15 -14 -14 -14 -13 -12 -12 -11 -11 -11 -11 -10 -9 -9 -9 -9 -10 -10 -10 -10 -10 -10 -10 -10 -10
-15 -15 -14 -14 -14 -13 -13 -12 -12 -12 -12 -11 -11 -10 -10 -9 -10 -11 -11 -11 -11 -11 -11 -11 -10 -10 -10

GFSFLT2_700_temp_024.txt.gz
Temp
-10 -9 -9 -10 -10 -10 -10 -9 -8 -7 -6 -6 -5 -4 -3 -2 -2 -2 -2 -2 -2 -2 -3 -3 -2 -2 -1
-11 -11 -11 -11 -11 -12 -11 -11 -10 -9 -9 -7 -6 -5 -4 -3 -3 -2 -2 -2 -2 -3 -2 -3 -2 -2 -1
-13 -13 -13 -13 -13 -13 -12 -12 -12 -12 -10 -9 -8 -7 -6 -5 -4 -3 -3 -2 -2 -3 -2 -2 -2 -2 -2
-15 -15 -15 -14 -14 -14 -13 -13 -13 -12 -12 -11 -11 -9 -8 -7 -6 -5 -4 -3 -3 -4 -3 -3 -2 -3 -3
-15 -15 -15 -14 -14 -14 -14 -14 -13 -13 -13 -13 -12 -11 -9 -9 -7 -7 -6 -4 -4 -4 -4 -4 -3 -3 -2
-16 -16 -14 -15 -15 -15 -15 -14 -14 -12 -14 -13 -12 -12 -11 -10 -9 -8 -7 -5 -4 -4 -4 -4 -4 -3 -3
-17 -16 -15 -15 -15 -15 -14 -15 -14 -13 -14 -13 -12 -12 -11 -11 -10 -9 -8 -7 -5 -4 -4 -4 -3 -3 -3
-16 -15 -15 -15 -15 -15 -15 -14 -13 -13 -14 -13 -12 -11 -11 -10 -10 -10 -9 -8 -6 -5 -4 -4 -3 -3 -3
-15 -15 -15 -15 -15 -15 -14 -14 -13 -13 -13 -13 -13 -12 -11 -10 -10 -10 -9 -8 -6 -5 -5 -4 -4 -3 -3
-14 -14 -14 -14 -14 -15 -14 -14 -13 -12 -14 -14 -13 -13 -10 -10 -10 -9 -8 -7 -6 -5 -4 -4 -4 -3 -3
-15 -15 -14 -14 -14 -14 -14 -14 -14 -13 -13 -14 -13 -12 -11 -9 -9 -9 -8 -8 -6 -5 -5 -4 -4 -4 -4
-15 -14 -14 -14 -14 -14 -15 -15 -15 -14 -14 -14 -13 -12 -11 -9 -8 -8 -8 -8 -7 -5 -5 -5 -5 -5 -4
-15 -15 -15 -15 -15 -15 -15 -15 -14 -14 -13 -13 -13 -12 -11 -10 -9 -8 -8 -8 -8 -7 -6 -6 -6 -5 -5
-16 -16 -16 -16 -16 -16 -15 -14 -14 -13 -13 -13 -13 -12 -11 -10 -9 -9 -8 -9 -8 -7 -6 -6 -6 -6 -5
-16 -16 -16 -15 -15 -15 -14 -14 -14 -13 -13 -12 -12 -12 -11 -11 -10 -9 -9 -10 -8 -8 -8 -8 -7 -7 -7
-16 -16 -15 -15 -14 -14 -14 -14 -13 -13 -13 -12 -12 -11 -11 -11 -10 -10 -10 -10 -9 -8 -8 -8 -8 -8 -8
-15 -15 -15 -15 -14 -14 -14 -13 -13 -13 -13 -12 -12 -12 -12 -11 -11 -11 -11 -10 -9 -10 -10 -10 -9 -9 -10

GFSFLT2_700_temp_027.txt.gz
Temp
-10 -10 -10 -11 -12 -13 -13 -13 -12 -12 -12 -11 -11 -11 -11 -9 -7 -6 -5 -4 -4 -4 -3 -3 -3 -3 -2
-12 -12 -12 -12 -13 -13 -14 -14 -14 -13 -13 -13 -14 -13 -11 -11 -9 -7 -6 -5 -4 -4 -4 -4 -4 -2 -3
-14 -14 -14 -14 -14 -14 -14 -14 -14 -14 -14 -14 -13 -13 -12 -11 -11 -9 -7 -6 -5 -4 -4 -3 -4 -3 -3
-15 -16 -16 -15 -15 -15 -14 -14 -13 -14 -14 -13 -13 -13 -13 -13 -12 -10 -9 -7 -6 -5 -4 -3 -3 -3 -3
-16 -17 -17 -15 -16 -15 -15 -14 -13 -14 -14 -13 -14 -15 -14 -14 -14 -13 -11 -9 -8 -6 -5 -4 -3 -3 -3
-17 -17 -16 -16 -15 -15 -15 -15 -13 -14 -15 -13 -14 -13 -13 -13 -13 -13 -13 -11 -9 -7 -5 -4 -3 -3 -2
-17 -17 -16 -16 -16 -15 -15 -15 -14 -14 -15 -13 -14 -13 -13 -13 -13 -12 -12 -12 -11 -8 -6 -5 -4 -3 -3
-17 -16 -16 -16 -16 -16 -15 -15 -14 -14 -14 -14 -14 -13 -13 -13 -13 -12 -12 -11 -11 -10 -7 -6 -4 -3 -3
-16 -16 -16 -16 -16 -16 -15 -15 -13 -14 -14 -14 -14 -14 -14 -13 -13 -13 -12 -11 -11 -10 -9 -7 -5 -3 -2
-15 -15 -15 -15 -16 -16 -15 -15 -15 -15 -14 -15 -15 -15 -13 -12 -13 -13 -12 -11 -11 -10 -9 -8 -6 -4 -3
-16 -15 -15 -15 -15 -16 -16 -17 -16 -16 -15 -16 -15 -14 -14 -12 -11 -11 -11 -11 -10 -10 -9 -8 -7 -6 -4
-16 -15 -16 -16 -16 -16 -16 -16 -16 -16 -15 -16 -15 -14 -14 -12 -11 -11 -10 -10 -10 -9 -8 -7 -7 -6 -6
-16 -16 -16 -16 -16 -16 -16 -16 -16 -15 -15 -15 -14 -14 -13 -12 -11 -10 -10 -9 -9 -8 -8 -7 -6 -6 -5
-16 -16 -16 -16 -16 -16 -15 -15 -14 -14 -14 -14 -14 -13 -13 -11 -11 -10 -9 -8 -8 -8 -7 -7 -6 -5 -5
-16 -16 -16 -16 -15 -15 -16 -15 -15 -14 -14 -13 -13 -13 -12 -12 -11 -10 -9 -8 -8 -7 -7 -6 -6 -6 -6
-15 -15 -15 -15 -14 -15 -14 -14 -14 -14 -13 -14 -13 -13 -12 -12 -11 -10 -9 -9 -8 -8 -8 -7 -7 -7 -6
-15 -14 -14 -14 -13 -13 -13 -13 -14 -13 -13 -14 -14 -13 -12 -12 -11 -11 -10 -10 -10 -9 -9 -8 -8 -8 -8

GFSFLT2_700_temp_030.txt.gz
Temp
-9 -10 -10 -11 -11 -13 -14 -14 -13 -13 -13 -14 -14 -13 -14 -15 -15 -14 -14 -12 -11 -8 -7 -6 -5 -4 -3
-11 -11 -12 -12 -12 -13 -14 -14 -15 -14 -15 -14 -13 -14 -16 -15 -14 -12 -12 -13 -12 -11 -8 -6 -5 -4 -4
-14 -13 -13 -14 -14 -14 -14 -14 -15 -15 -15 -14 -14 -14 -14 -13 -14 -16 -14 -13 -13 -13 -12 -8 -6 -5 -5
-18 -16 -16 -15 -16 -16 -15 -15 -14 -14 -14 -14 -15 -14 -14 -14 -14 -14 -14 -14 -14 -14 -13 -11 -8 -6 -5
-18 -18 -18 -16 -16 -15 -15 -14 -14 -15 -14 -13 -14 -14 -14 -14 -14 -14 -14 -14 -14 -14 -14 -13 -11 -6 -5
-19 -18 -17 -16 -16 -16 -16 -15 -14 -15 -15 -12 -14 -13 -13 -13 -13 -13 -14 -14 -14 -14 -13 -13 -11 -7 -5
-19 -17 -16 -16 -16 -16 -16 -16 -15 -15 -15 -12 -14 -13 -13 -13 -13 -14 -13 -13 -14 -14 -13 -13 -11 -7 -5
-18 -17 -17 -17 -17 -17 -16 -16 -15 -15 -16 -13 -13 -13 -14 -14 -14 -14 -14 -14 -14 -13 -12 -12 -10 -7 -5
-17 -16 -17 -17 -17 -17 -16 -17 -16 -16 -16 -16 -16 -15 -15 -14 -14 -14 -14 -14 -14 -13 -12 -11 -10 -7 -5
-16 -16 -16 -16 -17 -17 -17 -17 -17 -16 -16 -17 -16 -16 -14 -14 -14 -14 -14 -14 -14 -12 -11 -11 -10 -8 -5
-16 -16 -16 -16 -17 -17 -17 -17 -17 -17 -16 -17 -16 -16 -16 -14 -13 -13 -13 -13 -12 -11 -11 -11 -10 -8 -5
-16 -16 -16 -16 -16 -16 -17 -17 -16 -16 -16 -16 -15 -15 -15 -14 -13 -12 -12 -11 -11 -11 -11 -10 -10 -9 -7
-16 -16 -16 -16 -16 -16 -16 -16 -15 -16 -15 -15 -15 -14 -14 -13 -12 -11 -10 -10 -10 -9 -9 -8 -8 -8 -7
-16 -16 -15 -15 -15 -15 -15 -15 -15 -15 -15 -15 -14 -14 -13 -13 -12 -11 -10 -9 -9 -8 -8 -8 -7 -6 -6
-15 -15 -14 -14 -14 -14 -14 -14 -14 -14 -14 -14 -14 -14 -13 -12 -11 -10 -10 -9 -9 -9 -7 -7 -7 -7 -6
-15 -15 -14 -14 -14 -13 -14 -14 -14 -13 -13 -14 -13 -13 -13 -12 -12 -11 -10 -9 -9 -9 -8 -7 -7 -6 -6
-14 -14 -14 -14 -13 -13 -13 -13 -13 -13 -13 -14 -13 -13 -12 -12 -11 -11 -10 -10 -9 -9 -8 -8 -7 -7 -6

GFSFLT2_700_temp_033.txt.gz
Temp
-7 -8 -9 -11 -11 -13 -15 -14 -13 -14 -14 -15 -15 -14 -16 -15 -14 -15 -16 -15 -14 -14 -14 -14 -13 -12 -10
-8 -9 -11 -12 -12 -13 -14 -15 -15 -16 -17 -15 -14 -15 -14 -14 -14 -14 -14 -14 -14 -13 -15 -15 -13 -12 -12
-13 -13 -13 -15 -15 -15 -15 -15 -16 -15 -15 -15 -15 -14 -14 -14 -14 -14 -15 -15 -15 -14 -14 -14 -13 -13 -12
-18 -17 -17 -16 -17 -17 -15 -15 -15 -15 -15 -15 -15 -15 -15 -15 -14 -14 -14 -14 -14 -14 -14 -14 -13 -12 -13
-18 -18 -18 -17 -16 -16 -16 -15 -15 -15 -14 -14 -14 -14 -13 -14 -14 -14 -14 -14 -14 -14 -14 -14 -14 -13 -13
-19 -18 -17 -16 -16 -16 -16 -16 -16 -16 -16 -14 -16 -14 -14 -14 -14 -13 -13 -13 -14 -14 -14 -14 -14 -13 -13
-19 -17 -17 -16 -17 -17 -17 -17 -17 -16 -17 -15 -16 -15 -15 -15 -15 -14 -14 -13 -13 -13 -13 -13 -13 -13 -13
-17 -17 -17 -18 -18 -18 -17 -17 -16 -16 -17 -16 -16 -16 -16 -16 -16 -16 -15 -14 -14 -13 -13 -13 -13 -13 -13
-17 -17 -17 -17 -17 -18 -17 -17 -16 -16 -17 -17 -15 -15 -15 -15 -15 -15 -15 -15 -15 -15 -15 -15 -14 -13 -13
-16 -17 -17 -17 -17 -17 -17 -17 -17 -16 -17 -17 -16 -16 -14 -13 -14 -14 -14 -15 -15 -14 -14 -14 -13 -12 -12
-17 -16 -16 -16 -16 -16 -16 -17 -17 -16 -16 -17 -16 -15 -15 -13 -13 -14 -13 -13 -13 -12 -13 -13 -12 -12 -11
-16 -15 -15 -15 -15 -15 -15 -15 -16 -16 -16 -16 -15 -15 -14 -13 -13 -12 -12 -11 -11 -12 -12 -12 -12 -11 -10
-15 -15 -15 -15 -14 -14 -14 -14 -14 -15 -15 -15 -15 -15 -14 -13 -12 -11 -11 -11 -11 -10 -11 -11 -11 -10 -8
-15 -15 -15 -14 -14 -14 -14 -13 -13 -14 -14 -14 -14 -14 -13 -13 -12 -11 -11 -10 -10 -9 -9 -10 -10 -8 -7
-15 -15 -14 -14 -14 -14 -13 -14 -14 -13 -13 -14 -13 -13 -13 -12 -11 -11 -10 -10 -9 -9 -8 -9 -9 -8 -7
-15 -14 -14 -14 -13 -13 -13 -14 -13 -13 -13 -13 -13 -13 -12 -11 -10 -10 -10 -10 -10 -9 -8 -8 -8 -8 -7
-15 -15 -14 -14 -13 -13 -13 -13 -13 -13 -13 -13 -13 -12 -12 -11 -10 -11 -10 -10 -10 -9 -8 -7 -7 -6 -6

GFSFLT2_700_temp_036.txt.gz
Temp
-8 -8 -8 -10 -12 -14 -16 -15 -14 -13 -13 -13 -13 -14 -13 -14 -15 -15 -15 -15 -16 -16 -15 -14 -13 -12 -12
-8 -9 -11 -11 -13 -14 -15 -16 -17 -15 -15 -14 -14 -14 -14 -14 -14 -15 -15 -16 -17 -15 -16 -15 -15 -14 -13
-12 -12 -12 -14 -15 -15 -15 -16 -16 -16 -15 -15 -15 -15 -15 -14 -14 -14 -14 -15 -16 -15 -14 -14 -14 -14 -13
-14 -15 -16 -16 -17 -17 -16 -16 -15 -15 -15 -15 -15 -15 -15 -15 -14 -14 -14 -14 -13 -13 -13 -13 -13 -14 -14
-17 -18 -18 -17 -17 -16 -16 -15 -15 -14 -15 -15 -16 -15 -14 -15 -15 -14 -13 -13 -13 -13 -13 -13 -13 -13 -13
-18 -18 -17 -16 -16 -16 -16 -16 -15 -15 -16 -15 -16 -16 -16 -16 -16 -15 -14 -14 -14 -14 -14 -14 -15 -15 -14
-18 -16 -16 -16 -17 -17 -17 -16 -15 -15 -17 -15 -16 -15 -16 -16 -16 -16 -16 -15 -14 -14 -14 -14 -13 -13 -14
-16 -17 -17 -17 -17 -17 -17 -16 -15 -15 -17 -16 -15 -15 -15 -15 -16 -16 -16 -15 -15 -15 -15 -14 -13 -13 -13
-16 -17 -16 -16 -17 -17 -16 -16 -14 -14 -15 -16 -15 -15 -15 -14 -14 -15 -16 -16 -16 -15 -15 -15 -15 -14 -14
-16 -16 -16 -16 -16 -16 -15 -15 -15 -13 -15 -16 -15 -15 -14 -14 -14 -14 -14 -14 -14 -14 -14 -14 -14 -15 -15
-15 -15 -15 -15 -15 -15 -15 -15 -15 -14 -15 -16 -15 -15 -15 -14 -13 -14 -13 -13 -13 -13 -13 -13 -14 -14 -14
-15 -15 -14 -14 -14 -14 -14 -14 -15 -15 -15 -15 -15 -15 -14 -13 -13 -13 -12 -12 -12 -12 -12 -13 -13 -13 -13
-14 -14 -14 -14 -14 -14 -14 -14 -14 -14 -14 -14 -14 -13 -13 -13 -12 -11 -10 -11 -11 -11 -12 -12 -12 -12 -12
-14 -14 -14 -14 -14 -14 -13 -13 -13 -13 -14 -14 -13 -13 -12 -12 -12 -11 -11 -11 -10 -10 -10 -11 -11 -12 -12
-14 -15 -14 -14 -14 -14 -14 -13 -13 -13 -13 -13 -13 -12 -11 -11 -11 -11 -11 -10 -9 -10 -9 -11 -11 -10 -9
-15 -15 -15 -15 -15 -14 -14 -14 -13 -13 -13 -13 -12 -12 -11 -11 -10 -11 -11 -10 -9 -9 -9 -10 -9 -7 -7
-15 -15 -16 -15 -15 -14 -13 -14 -14 -13 -13 -13 -12 -12 -11 -11 -11 -11 -11 -10 -10 -8 -9 -9 -8 -7 -6

GFSFLT2_700_temp_039.txt.gz
Temp
-9 -9 -10 -11 -13 -15 -15 -15 -14 -14 -14 -14 -14 -14 -14 -14 -15 -13 -13 -14 -14 -15 -14 -14 -13 -13 -13
-10 -11 -12 -14 -14 -15 -15 -16 -17 -16 -15 -15 -15 -15 -15 -15 -15 -15 -14 -13 -13 -14 -14 -13 -14 -14 -13
-13 -13 -14 -15 -14 -15 -16 -17 -16 -15 -16 -16 -15 -15 -15 -15 -15 -15 -15 -14 -15 -15 -15 -15 -15 -15 -14
-14 -15 -15 -15 -16 -16 -16 -15 -15 -15 -15 -15 -15 -15 -15 -15 -15 -15 -15 -15 -14 -14 -14 -14 -14 -15 -15
-17 -16 -16 -16 -16 -16 -16 -15 -13 -15 -15 -14 -16 -15 -15 -15 -15 -15 -15 -15 -14 -14 -14 -14 -13 -13 -13
-18 -16 -16 -16 -16 -15 -15 -15 -13 -14 -15 -14 -15 -14 -15 -15 -15 -15 -15 -15 -15 -15 -14 -14 -13 -13 -13
-17 -16 -16 -16 -16 -15 -15 -15 -14 -14 -15 -14 -15 -13 -15 -15 -15 -15 -16 -16 -15 -15 -15 -15 -14 -13 -13
-16 -16 -16 -16 -16 -16 -15 -15 -14 -14 -15 -14 -14 -13 -14 -14 -15 -15 -15 -15 -15 -14 -14 -15 -15 -14 -14
-16 -16 -16 -16 -16 -16 -15 -14 -13 -13 -15 -14 -14 -14 -14 -14 -14 -14 -14 -14 -14 -14 -13 -14 -14 -14 -15
-15 -15 -15 -15 -15 -15 -15 -15 -14 -13 -15 -15 -14 -15 -12 -12 -13 -13 -12 -13 -13 -12 -12 -13 -14 -15 -15
-14 -14 -14 -14 -14 -14 -15 -15 -14 -14 -15 -15 -14 -14 -14 -11 -12 -13 -13 -13 -13 -12 -12 -13 -13 -14 -14
-14 -14 -14 -14 -14 -14 -14 -14 -15 -15 -14 -14 -14 -14 -13 -12 -11 -12 -12 -12 -12 -12 -13 -13 -13 -13 -13
-14 -14 -15 -15 -15 -14 -14 -14 -14 -14 -14 -14 -13 -12 -13 -13 -12 -12 -11 -11 -11 -11 -12 -12 -13 -13 -13
-15 -15 -15 -15 -15 -14 -13 -13 -12 -12 -13 -13 -12 -12 -12 -12 -12 -12 -11 -11 -10 -10 -11 -12 -12 -12 -13
-15 -15 -15 -15 -14 -14 -14 -13 -13 -12 -12 -13 -13 -12 -12 -12 -11 -12 -12 -11 -10 -10 -11 -12 -12 -12 -12
-15 -15 -15 -14 -14 -14 -14 -14 -13 -13 -13 -13 -12 -11 -11 -12 -12 -11 -11 -11 -10 -10 -11 -10 -9 -9 -9
-15 -15 -15 -15 -15 -14 -14 -13 -13 -13 -13 -13 -12 -11 -11 -12 -12 -11 -11 -11 -10 -9 -9 -10 -8 -7 -7

GFSFLT2_700_temp_042.txt.gz
Temp
-9 -9 -9 -11 -12 -13 -14 -14 -13 -13 -14 -14 -14 -14 -14 -14 -14 -14 -14 -14 -16 -15 -15 -14 -14 -13 -12
-10 -10 -11 -12 -13 -13 -14 -14 -14 -14 -14 -14 -15 -15 -15 -15 -15 -14 -14 -14 -15 -15 -15 -15 -15 -14 -14
-12 -13 -13 -13 -13 -14 -14 -14 -15 -14 -14 -15 -15 -15 -15 -15 -15 -15 -15 -15 -15 -14 -15 -15 -15 -15 -15
-14 -14 -14 -15 -15 -15 -14 -14 -14 -13 -13 -15 -14 -14 -15 -15 -15 -15 -15 -15 -14 -14 -14 -14 -14 -14 -15
-15 -15 -14 -14 -14 -14 -14 -13 -12 -13 -13 -13 -13 -13 -13 -13 -14 -14 -15 -15 -15 -15 -14 -15 -15 -14 -14
-14 -14 -15 -15 -14 -14 -14 -14 -11 -13 -13 -12 -14 -13 -14 -14 -14 -14 -15 -15 -15 -15 -15 -14 -14 -15 -15
-15 -15 -15 -15 -14 -14 -14 -14 -13 -13 -14 -12 -13 -12 -14 -14 -14 -14 -14 -14 -14 -14 -14 -14 -14 -14 -14
-15 -15 -15 -15 -15 -15 -14 -14 -13 -13 -15 -13 -13 -13 -13 -13 -14 -14 -14 -14 -13 -13 -13 -13 -13 -14 -14
-15 -15 -15 -15 -16 -15 -15 -14 -12 -12 -14 -13 -13 -12 -11 -12 -13 -13 -13 -13 -13 -12 -13 -13 -13 -13 -14
-14 -14 -15 -15 -15 -15 -15 -14 -14 -12 -14 -13 -13 -13 -10 -11 -12 -12 -12 -12 -12 -12 -12 -12 -12 -13 -13
-14 -14 -14 -14 -15 -15 -16 -16 -14 -15 -15 -15 -13 -13 -13 -11 -11 -12 -12 -12 -12 -12 -12 -12 -13 -13 -13
-14 -14 -14 -14 -14 -15 -15 -15 -15 -15 -14 -14 -13 -13 -12 -12 -11 -11 -12 -11 -11 -11 -11 -12 -12 -13 -13
-14 -14 -14 -14 -15 -14 -14 -14 -14 -15 -14 -14 -13 -13 -12 -13 -12 -12 -11 -10 -11 -10 -11 -12 -12 -12 -13
-14 -14 -14 -15 -15 -14 -13 -13 -12 -13 -14 -13 -13 -13 -12 -12 -12 -11 -12 -11 -10 -11 -11 -12 -13 -13 -13
-15 -14 -14 -15 -15 -14 -14 -13 -13 -13 -12 -13 -13 -13 -13 -11 -11 -11 -11 -11 -11 -11 -10 -11 -13 -13 -13
-15 -15 -15 -15 -14 -14 -14 -14 -13 -13 -13 -12 -12 -11 -11 -11 -11 -11 -11 -11 -10 -10 -10 -11 -11 -11 -12
-15 -15 -15 -15 -15 -14 -14 -14 -14 -14 -13 -13 -13 -12 -11 -12 -12 -11 -11 -10 -9 -9 -9 -10 -9 -9 -10

GFSFLT2_700_temp_045.txt.gz
Temp
-7 -8 -9 -11 -11 -12 -13 -12 -12 -12 -13 -13 -13 -13 -13 -13 -13 -13 -13 -13 -14 -14 -15 -15 -14 -14 -13
-8 -9 -10 -11 -12 -12 -12 -12 -13 -13 -13 -13 -13 -13 -13 -13 -13 -13 -14 -14 -13 -13 -14 -14 -15 -14 -14
-11 -11 -11 -12 -12 -12 -12 -12 -12 -13 -13 -13 -13 -13 -13 -13 -13 -13 -13 -13 -13 -13 -13 -14 -14 -15 -15
-13 -13 -13 -13 -13 -13 -11 -12 -12 -12 -12 -12 -12 -12 -12 -13 -13 -13 -13 -14 -14 -14 -14 -14 -14 -14 -14
-15 -14 -13 -13 -13 -13 -13 -12 -11 -12 -11 -11 -11 -11 -12 -12 -13 -13 -13 -13 -13 -14 -14 -14 -14 -14 -14
-14 -14 -14 -14 -14 -13 -13 -12 -10 -12 -11 -10 -12 -11 -12 -13 -13 -13 -12 -12 -12 -13 -13 -14 -14 -14 -14
-15 -15 -14 -14 -14 -13 -13 -13 -12 -13 -13 -11 -12 -11 -12 -13 -13 -13 -13 -12 -12 -12 -12 -13 -13 -14 -14
-15 -15 -15 -14 -14 -14 -14 -13 -13 -13 -16 -11 -12 -11 -11 -12 -13 -12 -12 -12 -12 -12 -12 -12 -12 -13 -13
-15 -15 -14 -15 -15 -15 -15 -14 -13 -12 -15 -12 -12 -11 -10 -11 -11 -12 -12 -12 -13 -13 -13 -12 -12 -12 -12
-13 -14 -14 -15 -15 -16 -15 -14 -14 -12 -15 -12 -12 -13 -9 -10 -11 -12 -11 -12 -11 -12 -12 -12 -13 -13 -12
-14 -14 -14 -14 -15 -15 -16 -16 -15 -14 -14 -14 -12 -13 -13 -11 -10 -11 -11 -11 -10 -11 -11 -11 -12 -12 -12
-14 -14 -14 -14 -14 -15 -15 -15 -15 -15 -14 -14 -14 -14 -13 -12 -11 -11 -11 -11 -10 -10 -10 -11 -12 -13 -13
-14 -14 -14 -14 -14 -15 -15 -15 -14 -15 -14 -14 -14 -13 -13 -12 -12 -12 -11 -9 -10 -9 -10 -11 -13 -13 -13
-14 -14 -14 -14 -15 -15 -14 -14 -13 -13 -14 -14 -13 -13 -13 -12 -12 -11 -11 -11 -9 -10 -10 -11 -12 -13 -13
-15 -14 -14 -14 -14 -14 -14 -14 -14 -13 -12 -13 -13 -13 -13 -12 -11 -12 -12 -10 -10 -10 -10 -11 -11 -12 -13
-15 -15 -14 -14 -14 -14 -14 -14 -14 -14 -13 -13 -12 -12 -12 -12 -12 -12 -12 -10 -9 -9 -10 -10 -10 -11 -12
-15 -15 -14 -14 -14 -14 -14 -14 -14 -14 -14 -13 -13 -13 -12 -11 -12 -12 -12 -11 -9 -9 -10 -10 -10 -10 -11

GFSFLT2_700_temp_048.txt.gz
Temp
-6 -7 -9 -10 -11 -12 -12 -12 -10 -11 -11 -11 -12 -12 -11 -11 -11 -11 -11 -11 -11 -12 -12 -12 -14 -14 -13
-7 -8 -9 -11 -12 -12 -12 -12 -12 -12 -12 -11 -12 -12 -12 -12 -12 -12 -11 -11 -11 -12 -12 -12 -13 -14 -14
-8 -9 -10 -12 -12 -13 -13 -12 -12 -12 -12 -12 -12 -12 -12 -12 -12 -12 -12 -12 -12 -12 -12 -12 -12 -12 -14
-11 -11 -12 -12 -13 -13 -12 -12 -12 -12 -12 -11 -11 -11 -11 -11 -11 -12 -12 -12 -11 -12 -12 -12 -12 -13 -13
-13 -13 -13 -13 -13 -12 -12 -12 -11 -12 -12 -11 -12 -12 -11 -12 -12 -12 -12 -11 -11 -11 -11 -11 -12 -12 -13
-14 -14 -14 -13 -13 -13 -13 -12 -10 -12 -13 -10 -13 -11 -12 -12 -12 -12 -11 -11 -11 -11 -11 -12 -12 -12 -12
-14 -14 -14 -14 -14 -13 -12 -12 -12 -12 -14 -10 -12 -11 -12 -12 -13 -12 -11 -11 -11 -12 -12 -12 -12 -12 -12
-14 -14 -15 -15 -15 -14 -14 -13 -12 -13 -15 -12 -12 -11 -11 -12 -12 -12 -12 -11 -11 -11 -11 -12 -12 -12 -12
-14 -14 -14 -15 -15 -15 -14 -14 -13 -12 -14 -13 -12 -11 -10 -11 -11 -11 -11 -11 -11 -11 -11 -11 -12 -12 -12
-13 -14 -14 -14 -15 -16 -15 -15 -14 -12 -14 -12 -12 -13 -9 -10 -11 -11 -11 -11 -11 -11 -11 -11 -11 -11 -11
-14 -14 -14 -15 -15 -15 -15 -15 -14 -14 -15 -14 -12 -13 -13 -11 -10 -11 -11 -11 -11 -10 -11 -11 -11 -11 -12
-14 -15 -14 -15 -15 -15 -15 -15 -15 -15 -15 -15 -13 -13 -13 -12 -11 -11 -11 -11 -11 -9 -9 -9 -10 -11 -12
-14 -14 -15 -15 -15 -14 -14 -14 -14 -15 -15 -14 -14 -14 -14 -13 -12 -11 -11 -10 -10 -9 -9 -10 -11 -12 -13
-14 -14 -15 -14 -15 -14 -14 -14 -14 -13 -15 -14 -14 -14 -13 -13 -13 -11 -11 -11 -10 -10 -10 -10 -11 -11 -12
-15 -15 -14 -14 -15 -15 -14 -14 -14 -14 -13 -14 -14 -14 -13 -13 -12 -11 -11 -11 -11 -10 -10 -10 -11 -11 -12
-15 -15 -15 -15 -14 -14 -14 -14 -14 -14 -13 -13 -13 -12 -13 -13 -12 -11 -11 -11 -11 -11 -10 -10 -11 -11 -11
-15 -15 -15 -15 -15 -15 -15 -14 -14 -14 -14 -14 -14 -13 -13 -12 -12 -12 -11 -11 -11 -11 -10 -10 -10 -11 -11

GFSFLT2_700_temp_051.txt.gz
Temp
-6 -7 -8 -9 -9 -10 -11 -11 -11 -10 -11 -11 -12 -11 -11 -11 -10 -10 -10 -10 -10 -10 -10 -10 -10 -11 -12
-7 -8 -9 -10 -11 -12 -11 -11 -11 -11 -11 -12 -12 -11 -12 -11 -11 -11 -10 -10 -10 -10 -10 -10 -10 -10 -11
-7 -9 -10 -11 -12 -12 -12 -12 -12 -12 -12 -12 -12 -11 -11 -11 -11 -11 -11 -11 -10 -10 -10 -11 -11 -11 -11
-10 -10 -11 -12 -13 -13 -12 -12 -12 -12 -12 -12 -12 -11 -11 -12 -12 -12 -12 -11 -10 -10 -10 -10 -10 -10 -10
-11 -11 -12 -13 -13 -13 -13 -12 -11 -12 -12 -11 -12 -12 -12 -12 -12 -12 -12 -11 -11 -11 -10 -10 -10 -10 -11
-12 -12 -13 -13 -13 -13 -12 -12 -11 -12 -13 -11 -12 -11 -12 -12 -12 -12 -11 -12 -11 -11 -10 -10 -10 -10 -11
-13 -13 -13 -14 -14 -13 -13 -13 -12 -12 -13 -11 -12 -11 -11 -11 -12 -12 -12 -12 -12 -11 -11 -11 -11 -11 -11
-13 -13 -14 -14 -14 -14 -14 -13 -12 -13 -14 -13 -12 -11 -11 -11 -12 -13 -13 -12 -11 -11 -11 -11 -11 -11 -11
-13 -14 -14 -14 -15 -15 -14 -13 -12 -12 -14 -14 -12 -11 -10 -11 -12 -12 -11 -11 -12 -12 -11 -11 -10 -10 -10
-13 -14 -14 -14 -14 -15 -15 -14 -14 -12 -14 -14 -12 -13 -9 -10 -11 -12 -11 -12 -12 -12 -11 -11 -10 -10 -10
-13 -14 -14 -14 -15 -15 -15 -15 -14 -13 -15 -15 -13 -13 -13 -11 -10 -11 -12 -12 -12 -12 -11 -11 -10 -11 -11
-14 -14 -14 -14 -15 -15 -15 -15 -15 -15 -14 -15 -14 -14 -13 -12 -11 -11 -12 -12 -12 -11 -10 -9 -10 -10 -11
-14 -14 -14 -15 -15 -15 -14 -15 -14 -15 -15 -15 -14 -14 -14 -13 -12 -12 -12 -12 -12 -11 -10 -9 -10 -11 -11
-15 -15 -15 -15 -15 -15 -14 -14 -14 -14 -14 -15 -15 -14 -14 -14 -13 -13 -13 -12 -11 -11 -10 -10 -11 -11 -11
-15 -15 -15 -15 -14 -15 -15 -14 -14 -14 -14 -14 -14 -14 -14 -14 -13 -13 -12 -11 -12 -11 -11 -10 -10 -11 -11
-15 -15 -15 -15 -14 -14 -15 -15 -14 -14 -14 -14 -14 -13 -13 -13 -14 -12 -12 -12 -11 -11 -11 -11 -9 -10 -10
-15 -15 -15 -15 -15 -15 -15 -15 -14 -15 -15 -15 -14 -14 -13 -12 -12 -13 -12 -12 -11 -11 -11 -11 -10 -10 -10

GFSFLT2_700_temp_054.txt.gz
Temp
-3 -5 -6 -7 -7 -8 -9 -10 -10 -11 -11 -11 -11 -12 -11 -11 -11 -11 -10 -10 -10 -9 -9 -9 -9 -10 -10
-5 -6 -8 -8 -9 -10 -11 -11 -11 -11 -11 -11 -12 -12 -12 -11 -11 -10 -10 -10 -9 -9 -9 -9 -9 -9 -10
-7 -9 -9 -10 -11 -11 -11 -11 -11 -11 -12 -12 -12 -12 -11 -11 -11 -11 -11 -11 -10 -10 -10 -10 -10 -10 -10
-9 -9 -10 -11 -12 -11 -11 -11 -11 -11 -11 -12 -12 -12 -12 -12 -11 -12 -12 -12 -11 -10 -10 -10 -10 -10 -10
-10 -10 -11 -12 -13 -12 -12 -12 -11 -12 -11 -11 -12 -11 -12 -12 -12 -13 -12 -12 -11 -11 -11 -11 -11 -10 -10
-11 -11 -11 -13 -13 -13 -13 -13 -11 -12 -12 -11 -12 -11 -12 -11 -12 -12 -12 -12 -12 -11 -12 -12 -11 -11 -10
-12 -12 -12 -13 -13 -14 -13 -13 -12 -12 -13 -12 -12 -11 -12 -11 -13 -13 -13 -13 -12 -12 -12 -12 -11 -11 -10
-12 -13 -13 -14 -14 -14 -14 -14 -13 -13 -14 -13 -12 -11 -11 -11 -13 -13 -13 -13 -13 -13 -12 -11 -11 -11 -10
-13 -13 -14 -14 -14 -14 -14 -14 -13 -12 -14 -14 -12 -11 -11 -11 -12 -13 -13 -13 -12 -12 -12 -12 -11 -11 -10
-13 -13 -14 -14 -14 -15 -15 -14 -14 -13 -15 -13 -13 -13 -10 -10 -11 -12 -12 -13 -13 -12 -12 -12 -12 -11 -10
-13 -14 -14 -14 -14 -15 -15 -15 -14 -14 -15 -15 -14 -13 -13 -11 -11 -12 -13 -12 -12 -12 -12 -12 -12 -11 -10
-13 -14 -14 -14 -14 -15 -15 -15 -15 -15 -15 -15 -15 -14 -13 -13 -12 -11 -13 -13 -12 -12 -12 -12 -11 -11 -10
-13 -14 -14 -14 -14 -14 -15 -15 -14 -15 -15 -15 -15 -14 -14 -14 -13 -12 -13 -12 -13 -12 -12 -11 -11 -11 -10
-14 -14 -14 -14 -14 -15 -14 -14 -14 -14 -15 -15 -15 -15 -14 -14 -14 -13 -14 -13 -12 -12 -11 -11 -11 -11 -10
-14 -14 -14 -14 -14 -14 -14 -14 -14 -14 -14 -14 -15 -15 -15 -15 -14 -14 -14 -13 -12 -12 -12 -11 -11 -11 -11
-15 -15 -14 -14 -14 -14 -15 -15 -15 -14 -14 -15 -14 -14 -13 -13 -14 -14 -14 -13 -12 -12 -12 -11 -10 -11 -11
-14 -15 -15 -14 -15 -15 -15 -15 -15 -15 -15 -15 -15 -15 -13 -12 -12 -14 -14 -13 -12 -11 -11 -11 -11 -11 -11

GFSFLT2_700_temp_057.txt.gz
Temp
-2 -3 -3 -4 -5 -6 -7 -8 -9 -9 -10 -10 -10 -10 -11 -11 -11 -11 -11 -11 -10 -10 -10 -10 -10 -10 -10
-3 -3 -5 -6 -7 -8 -9 -10 -10 -10 -10 -11 -11 -11 -11 -11 -11 -11 -11 -10 -10 -10 -9 -9 -10 -10 -9
-4 -6 -7 -8 -8 -9 -9 -10 -11 -11 -11 -11 -11 -12 -12 -12 -12 -11 -11 -11 -11 -10 -10 -10 -10 -10 -10
-6 -7 -8 -9 -9 -9 -9 -10 -10 -11 -11 -12 -11 -12 -12 -12 -12 -12 -12 -12 -11 -10 -10 -10 -10 -11 -11
-8 -9 -9 -10 -10 -10 -11 -11 -11 -11 -11 -12 -11 -12 -12 -12 -12 -13 -13 -12 -12 -11 -11 -11 -11 -11 -11
-9 -10 -10 -11 -12 -11 -11 -11 -10 -12 -12 -11 -12 -12 -12 -12 -12 -13 -13 -12 -12 -12 -11 -11 -11 -11 -12
-10 -11 -11 -12 -12 -12 -12 -12 -12 -12 -12 -12 -13 -12 -12 -12 -13 -13 -13 -13 -12 -12 -12 -12 -12 -12 -11
-12 -12 -12 -13 -13 -13 -13 -13 -13 -13 -14 -13 -12 -12 -12 -12 -13 -13 -14 -13 -13 -13 -12 -12 -13 -12 -12
-12 -13 -13 -14 -14 -13 -14 -13 -12 -13 -14 -14 -13 -12 -12 -12 -13 -13 -13 -14 -14 -14 -13 -13 -13 -12 -11
-13 -13 -13 -14 -14 -14 -14 -14 -14 -13 -14 -14 -13 -14 -11 -11 -12 -13 -13 -13 -14 -13 -13 -13 -13 -12 -11
-13 -13 -14 -14 -14 -15 -15 -15 -14 -13 -15 -15 -14 -14 -14 -12 -12 -12 -13 -13 -13 -13 -13 -13 -12 -12 -12
-13 -13 -13 -14 -14 -14 -15 -15 -15 -15 -15 -16 -15 -15 -15 -14 -13 -12 -13 -13 -13 -12 -12 -12 -12 -12 -12
-13 -13 -13 -14 -14 -14 -14 -15 -15 -15 -15 -15 -16 -15 -15 -14 -14 -13 -13 -12 -13 -13 -12 -12 -11 -12 -11
-13 -14 -14 -14 -14 -15 -14 -14 -14 -14 -15 -15 -15 -15 -15 -15 -14 -14 -14 -13 -12 -12 -12 -11 -11 -11 -11
-14 -14 -14 -14 -14 -15 -15 -15 -14 -14 -14 -15 -15 -15 -15 -15 -15 -14 -14 -13 -13 -12 -12 -11 -10 -11 -11
-14 -14 -14 -15 -15 -15 -15 -15 -15 -15 -15 -15 -15 -14 -14 -13 -15 -14 -13 -13 -12 -12 -12 -11 -10 -10 -11
-14 -15 -15 -15 -15 -15 -16 -15 -15 -15 -15 -15 -15 -15 -14 -12 -13 -14 -15 -13 -12 -12 -12 -11 -11 -10 -11

GFSFLT2_700_temp_060.txt.gz
Temp
-2 -3 -2 -2 -2 -3 -4 -5 -6 -7 -8 -8 -9 -9 -9 -9 -10 -10 -10 -11 -10 -10 -10 -10 -10 -10 -10
-3 -3 -3 -3 -4 -5 -6 -7 -8 -9 -10 -10 -10 -10 -10 -10 -10 -10 -11 -10 -10 -10 -10 -10 -10 -10 -10
-3 -3 -4 -5 -5 -6 -7 -8 -9 -10 -10 -10 -11 -11 -11 -11 -11 -11 -11 -11 -11 -11 -11 -10 -10 -10 -10
-4 -4 -5 -6 -7 -7 -8 -9 -10 -11 -11 -11 -11 -11 -11 -11 -11 -11 -12 -12 -12 -12 -11 -11 -10 -10 -10
-5 -6 -7 -8 -9 -9 -9 -9 -10 -12 -11 -11 -11 -11 -12 -12 -12 -12 -12 -12 -12 -12 -11 -11 -10 -11 -11
-7 -8 -9 -9 -10 -10 -10 -10 -9 -12 -11 -11 -12 -11 -11 -12 -12 -12 -12 -12 -12 -12 -12 -12 -11 -11 -11
-9 -10 -10 -11 -11 -11 -11 -11 -11 -12 -11 -10 -12 -11 -12 -12 -12 -13 -13 -13 -13 -12 -12 -12 -11 -11 -12
-11 -11 -12 -12 -12 -12 -12 -12 -12 -13 -13 -11 -12 -12 -11 -12 -13 -14 -14 -14 -13 -13 -12 -12 -12 -12 -12
-12 -13 -13 -13 -14 -13 -13 -13 -12 -12 -14 -13 -12 -12 -11 -11 -13 -13 -14 -14 -14 -14 -14 -13 -13 -13 -12
-13 -13 -13 -14 -14 -14 -14 -14 -14 -13 -14 -14 -13 -13 -11 -11 -11 -13 -13 -14 -14 -14 -14 -14 -13 -13 -13
-12 -13 -13 -14 -14 -15 -15 -15 -14 -14 -15 -15 -13 -14 -14 -12 -12 -13 -13 -13 -14 -14 -14 -14 -14 -13 -13
-12 -13 -13 -14 -14 -15 -15 -15 -15 -15 -15 -16 -15 -15 -14 -13 -13 -13 -13 -13 -14 -13 -14 -14 -14 -13 -13
-13 -13 -13 -13 -14 -14 -15 -15 -15 -16 -16 -16 -16 -15 -15 -14 -14 -13 -13 -13 -13 -13 -13 -13 -13 -13 -13
-13 -13 -14 -14 -14 -15 -15 -15 -15 -15 -16 -16 -16 -16 -15 -15 -14 -14 -14 -13 -13 -13 -13 -12 -12 -12 -12
-13 -14 -14 -14 -15 -15 -15 -15 -15 -15 -15 -16 -16 -16 -15 -15 -15 -14 -14 -14 -14 -13 -13 -12 -11 -11 -11
-14 -14 -14 -14 -14 -15 -15 -16 -15 -15 -15 -15 -15 -15 -14 -14 -15 -14 -14 -13 -13 -13 -13 -12 -10 -11 -11
-14 -14 -14 -14 -15 -15 -15 -15 -15 -15 -15 -15 -15 -15 -14 -13 -13 -15 -15 -14 -14 -13 -13 -12 -11 -10 -11

GFSFLT2_700_temp_063.txt.gz
Temp
-1 -2 -2 -2 -2 -3 -3 -3 -3 -4 -4 -5 -5 -6 -7 -8 -8 -8 -9 -8 -9 -9 -9 -10 -10 -10 -10
-2 -2 -2 -3 -3 -3 -3 -4 -5 -6 -7 -7 -8 -9 -9 -9 -9 -9 -9 -9 -9 -10 -10 -11 -10 -10 -10
-2 -3 -3 -3 -3 -4 -4 -5 -7 -8 -9 -9 -10 -10 -10 -10 -10 -10 -10 -10 -10 -10 -10 -11 -11 -10 -10
-3 -3 -3 -4 -5 -5 -5 -7 -8 -10 -11 -11 -11 -11 -11 -11 -11 -10 -10 -11 -11 -11 -11 -11 -11 -11 -11
-4 -4 -4 -6 -7 -7 -8 -8 -9 -11 -11 -10 -11 -11 -12 -11 -11 -11 -12 -12 -11 -11 -11 -12 -12 -11 -11
-5 -6 -7 -8 -8 -9 -9 -10 -9 -11 -11 -10 -12 -11 -12 -12 -11 -11 -12 -12 -12 -11 -12 -12 -12 -11 -11
-7 -8 -8 -10 -10 -10 -11 -11 -11 -11 -12 -10 -12 -11 -12 -12 -12 -12 -13 -13 -12 -12 -12 -12 -12 -12 -12
-9 -10 -10 -11 -11 -11 -11 -11 -11 -12 -14 -11 -12 -12 -12 -12 -13 -14 -14 -13 -13 -13 -13 -13 -12 -12 -12
-10 -11 -12 -12 -13 -12 -12 -12 -11 -12 -13 -14 -13 -13 -12 -12 -13 -14 -14 -14 -14 -14 -14 -14 -13 -13 -12
-12 -12 -12 -12 -13 -13 -13 -13 -14 -13 -14 -15 -14 -14 -13 -12 -12 -13 -13 -14 -14 -14 -14 -14 -14 -13 -12
-11 -11 -12 -12 -13 -14 -14 -15 -15 -15 -15 -16 -14 -14 -15 -13 -12 -13 -13 -14 -14 -14 -14 -14 -14 -13 -13
-11 -12 -12 -13 -13 -14 -14 -15 -15 -16 -16 -16 -16 -16 -15 -14 -13 -13 -13 -14 -14 -14 -14 -14 -14 -14 -13
-12 -12 -13 -13 -14 -14 -14 -15 -15 -16 -16 -16 -16 -16 -16 -15 -15 -14 -14 -13 -14 -14 -14 -14 -13 -14 -13
-12 -13 -13 -13 -14 -14 -14 -14 -14 -14 -16 -16 -16 -16 -16 -15 -15 -14 -14 -14 -14 -14 -13 -13 -13 -13 -13
-13 -13 -13 -13 -14 -14 -14 -14 -14 -14 -14 -15 -16 -16 -16 -16 -15 -15 -15 -14 -14 -14 -14 -13 -13 -13 -13
-13 -13 -13 -14 -13 -14 -14 -14 -14 -14 -14 -15 -15 -14 -14 -14 -15 -14 -14 -14 -14 -13 -13 -12 -12 -12 -12
-13 -14 -14 -14 -14 -14 -14 -14 -14 -14 -14 -15 -15 -15 -14 -13 -14 -14 -14 -13 -13 -13 -13 -13 -12 -12 -12

GFSFLT2_700_temp_069.txt.gz
Temp
-2 -3 -3 -4 -3 -3 -3 -2 -2 -2 -2 -2 -2 -2 -3 -3 -4 -4 -5 -6 -7 -8 -8 -9 -9 -10 -10
-3 -3 -3 -3 -3 -3 -3 -2 -3 -3 -4 -3 -4 -5 -6 -6 -7 -7 -8 -8 -8 -9 -10 -10 -10 -10 -10
-2 -2 -2 -3 -3 -3 -3 -3 -4 -5 -5 -6 -7 -8 -8 -9 -9 -9 -9 -10 -10 -10 -10 -10 -10 -11 -11
-3 -3 -3 -3 -3 -3 -4 -4 -5 -6 -7 -8 -8 -9 -10 -10 -10 -10 -11 -11 -11 -11 -10 -10 -11 -11 -11
-4 -4 -3 -4 -4 -5 -5 -6 -7 -8 -8 -8 -10 -10 -11 -11 -11 -12 -12 -12 -12 -12 -12 -12 -12 -12 -11
-4 -4 -4 -5 -6 -6 -7 -7 -7 -9 -8 -8 -10 -9 -10 -11 -12 -12 -13 -13 -13 -13 -13 -13 -13 -13 -12
-5 -6 -6 -7 -7 -7 -8 -9 -9 -10 -9 -8 -11 -10 -11 -11 -13 -13 -13 -14 -14 -14 -13 -13 -13 -13 -13
-6 -7 -8 -8 -9 -9 -9 -9 -9 -11 -11 -10 -11 -10 -11 -11 -12 -13 -14 -14 -15 -14 -14 -14 -14 -13 -13
-8 -8 -9 -10 -10 -10 -11 -10 -10 -11 -12 -11 -11 -10 -11 -11 -12 -13 -14 -14 -14 -15 -14 -14 -14 -14 -13
-10 -10 -11 -11 -11 -11 -11 -11 -11 -11 -13 -11 -12 -12 -9 -11 -11 -13 -13 -14 -14 -14 -14 -14 -14 -13 -13
-11 -11 -11 -12 -12 -12 -12 -12 -12 -12 -13 -13 -12 -13 -13 -12 -11 -13 -13 -13 -13 -14 -14 -14 -14 -14 -13
-11 -11 -12 -12 -12 -13 -13 -13 -13 -13 -13 -14 -13 -13 -13 -12 -12 -12 -13 -13 -13 -13 -14 -14 -14 -14 -14
-11 -11 -12 -12 -12 -13 -13 -13 -13 -14 -14 -14 -14 -13 -14 -13 -13 -13 -13 -13 -14 -14 -13 -13 -13 -14 -14
-11 -11 -12 -12 -13 -13 -13 -12 -12 -12 -13 -14 -14 -14 -13 -14 -14 -13 -14 -13 -13 -13 -13 -13 -13 -13 -13
-11 -12 -12 -12 -13 -13 -13 -13 -12 -12 -12 -13 -14 -14 -14 -14 -13 -14 -13 -13 -13 -13 -13 -12 -13 -13 -13
-12 -12 -12 -12 -12 -13 -13 -13 -13 -13 -13 -13 -13 -13 -13 -13 -14 -12 -13 -12 -12 -12 -12 -12 -12 -13 -13
-12 -12 -12 -12 -12 -13 -13 -13 -13 -13 -13 -14 -13 -13 -12 -11 -13 -14 -12 -12 -12 -12 -12 -12 -11 -12 -12

GFSFLT2_700_temp_072.txt.gz
Temp
-3 -3 -3 -3 -3 -2 -3 -2 -2 -2 -2 -2 -2 -1 -2 -2 -2 -2 -2 -3 -4 -5 -5 -6 -7 -7 -8
-3 -3 -3 -3 -3 -5 -3 -3 -3 -3 -3 -3 -2 -2 -3 -4 -4 -5 -5 -6 -6 -6 -6 -7 -7 -8 -8
-3 -3 -4 -5 -4 -4 -3 -3 -3 -4 -4 -4 -4 -5 -6 -6 -7 -7 -7 -7 -7 -7 -8 -8 -9 -9 -10
-4 -3 -4 -4 -4 -4 -3 -3 -4 -5 -5 -5 -6 -7 -8 -8 -8 -8 -8 -8 -8 -8 -9 -9 -10 -11 -11
-4 -4 -4 -4 -4 -4 -4 -4 -5 -6 -7 -8 -8 -9 -9 -9 -9 -9 -9 -9 -9 -10 -10 -10 -11 -11 -12
-4 -4 -5 -5 -5 -6 -6 -6 -7 -9 -9 -8 -9 -9 -9 -9 -10 -10 -10 -9 -10 -10 -10 -11 -11 -12 -13
-4 -5 -5 -6 -6 -7 -8 -8 -9 -10 -9 -8 -10 -9 -10 -10 -10 -11 -11 -11 -11 -11 -11 -12 -12 -12 -13
-6 -6 -7 -8 -8 -9 -9 -9 -9 -10 -10 -9 -10 -10 -10 -11 -11 -12 -12 -12 -12 -12 -12 -12 -12 -12 -13
-7 -8 -9 -9 -10 -10 -10 -10 -10 -10 -11 -11 -10 -10 -10 -10 -11 -12 -12 -13 -13 -13 -12 -12 -13 -13 -13
-9 -9 -10 -10 -11 -11 -11 -11 -11 -10 -12 -10 -10 -11 -9 -10 -11 -12 -12 -13 -13 -13 -13 -13 -13 -13 -13
-10 -11 -11 -11 -11 -11 -11 -11 -11 -12 -12 -11 -11 -11 -11 -11 -10 -12 -13 -13 -12 -13 -13 -13 -13 -13 -13
-11 -11 -11 -11 -11 -12 -12 -12 -12 -12 -12 -12 -12 -12 -12 -11 -11 -12 -12 -13 -12 -12 -12 -13 -13 -13 -14
-11 -11 -11 -11 -12 -12 -12 -12 -12 -13 -13 -13 -13 -12 -13 -13 -12 -12 -12 -12 -13 -12 -13 -12 -13 -13 -13
-10 -11 -11 -11 -12 -12 -12 -12 -11 -12 -13 -13 -13 -13 -13 -13 -13 -12 -13 -13 -12 -13 -12 -12 -13 -13 -13
-10 -11 -11 -11 -12 -12 -12 -12 -12 -12 -12 -13 -13 -12 -13 -13 -13 -14 -13 -13 -13 -12 -12 -12 -12 -13 -12
-11 -11 -11 -11 -12 -12 -12 -12 -12 -12 -12 -12 -12 -12 -12 -12 -13 -12 -12 -12 -13 -12 -12 -12 -11 -12 -12
-11 -11 -11 -11 -12 -12 -12 -12 -12 -12 -12 -13 -12 -13 -12 -11 -12 -14 -13 -13 -13 -13 -13 -13 -12 -12 -13

GFSFLT2_700_temp_075.txt.gz
Temp
-1 -1 -1 -1 -2 -3 -3 -3 -3 -3 -2 -2 -2 -2 -2 -2 -2 -2 -2 -1 -2 -2 -3 -4 -5 -5 -4
-1 -1 -2 -3 -3 -4 -3 -3 -3 -3 -3 -3 -3 -3 -3 -3 -3 -3 -3 -4 -4 -5 -5 -5 -5 -5 -6
-2 -3 -3 -4 -3 -3 -4 -3 -4 -4 -4 -4 -4 -4 -4 -4 -5 -6 -6 -6 -6 -6 -6 -6 -6 -7 -7
-4 -4 -4 -4 -3 -4 -4 -4 -4 -5 -4 -5 -5 -5 -6 -7 -8 -8 -8 -8 -7 -7 -7 -7 -7 -7 -8
-4 -4 -4 -4 -4 -4 -5 -4 -5 -6 -5 -6 -6 -8 -9 -9 -9 -9 -8 -8 -8 -8 -8 -8 -8 -8 -8
-4 -4 -4 -4 -5 -5 -6 -6 -6 -8 -7 -8 -9 -9 -9 -9 -9 -9 -9 -9 -9 -9 -8 -8 -9 -9 -9
-4 -4 -5 -5 -6 -7 -7 -8 -9 -10 -10 -9 -9 -9 -9 -9 -9 -9 -10 -10 -10 -10 -9 -9 -9 -10 -10
-5 -6 -6 -7 -8 -8 -9 -9 -10 -10 -10 -8 -10 -9 -10 -10 -10 -10 -11 -11 -11 -10 -10 -10 -10 -11 -10
-7 -7 -8 -9 -9 -10 -10 -10 -10 -10 -10 -10 -10 -10 -10 -10 -11 -11 -11 -11 -11 -11 -11 -11 -11 -11 -11
-8 -9 -9 -9 -10 -10 -10 -10 -10 -10 -11 -10 -10 -10 -9 -9 -10 -11 -11 -12 -11 -11 -12 -12 -12 -12 -11
-8 -9 -9 -10 -10 -10 -11 -10 -11 -11 -12 -11 -10 -11 -11 -10 -10 -11 -11 -11 -12 -12 -12 -12 -12 -12 -12
-9 -9 -10 -10 -10 -11 -11 -11 -11 -12 -12 -12 -11 -11 -11 -11 -11 -11 -12 -12 -12 -12 -12 -12 -12 -12 -12
-9 -10 -10 -10 -11 -11 -11 -11 -11 -12 -12 -12 -12 -12 -12 -12 -11 -11 -12 -11 -12 -12 -12 -12 -12 -12 -12
-10 -10 -10 -11 -11 -11 -11 -11 -11 -11 -12 -12 -12 -12 -12 -12 -12 -12 -13 -12 -12 -13 -12 -12 -12 -13 -13
-9 -10 -10 -10 -11 -11 -11 -11 -11 -11 -11 -12 -12 -12 -12 -12 -12 -13 -13 -13 -13 -13 -13 -12 -12 -12 -12
-9 -10 -10 -10 -11 -11 -11 -11 -11 -11 -11 -11 -12 -12 -12 -12 -13 -13 -12 -12 -12 -12 -13 -12 -12 -13 -13
-10 -10 -10 -10 -11 -11 -11 -11 -11 -11 -11 -12 -12 -12 -12 -11 -12 -14 -13 -13 -13 -13 -13 -13 -12 -12 -13

GFSFLT2_700_temp_078.txt.gz
Temp
-1 -2 -2 -2 -2 -2 -2 -3 -3 -3 -3 -3 -3 -3 -3 -3 -3 -2 -2 -2 -2 -2 -2 -2 -3 -3 -4
-2 -3 -3 -3 -3 -3 -3 -4 -4 -4 -4 -4 -3 -3 -3 -3 -3 -3 -3 -3 -3 -3 -4 -4 -5 -5 -5
-2 -3 -4 -3 -4 -4 -4 -4 -4 -4 -4 -4 -4 -4 -4 -4 -4 -4 -4 -5 -5 -6 -6 -6 -6 -6 -7
-2 -3 -4 -5 -4 -4 -4 -4 -5 -5 -4 -5 -4 -5 -5 -6 -6 -7 -7 -8 -7 -7 -7 -7 -7 -7 -8
-3 -4 -4 -4 -4 -4 -4 -5 -5 -5 -5 -5 -5 -7 -8 -8 -9 -9 -8 -8 -8 -8 -8 -8 -8 -8 -8
-3 -3 -4 -4 -5 -5 -5 -5 -5 -6 -6 -8 -8 -9 -9 -9 -9 -9 -9 -9 -9 -10 -9 -9 -9 -8 -9
-4 -5 -5 -5 -5 -6 -6 -7 -8 -9 -8 -9 -9 -9 -10 -9 -9 -9 -10 -10 -10 -10 -10 -9 -9 -9 -9
-4 -5 -5 -5 -6 -7 -8 -8 -9 -9 -8 -8 -9 -9 -9 -10 -10 -10 -10 -10 -10 -10 -10 -10 -10 -10 -10
-5 -5 -6 -7 -7 -8 -9 -9 -9 -10 -10 -9 -9 -9 -9 -10 -11 -11 -11 -11 -11 -11 -11 -11 -11 -11 -10
-6 -6 -7 -8 -8 -8 -9 -9 -9 -10 -10 -9 -10 -10 -8 -9 -10 -11 -11 -11 -11 -11 -11 -11 -11 -11 -11
-6 -7 -7 -7 -8 -9 -9 -9 -10 -11 -11 -10 -9 -10 -10 -9 -9 -10 -11 -11 -11 -11 -12 -12 -12 -12 -11
-7 -7 -8 -8 -9 -9 -10 -10 -11 -11 -11 -11 -10 -11 -10 -10 -10 -10 -11 -11 -11 -12 -12 -12 -12 -12 -12
-8 -8 -8 -9 -9 -10 -10 -11 -11 -11 -12 -12 -11 -11 -11 -11 -10 -11 -11 -10 -11 -11 -12 -11 -11 -12 -12
-8 -8 -9 -9 -10 -10 -10 -11 -11 -11 -11 -12 -11 -11 -11 -11 -11 -11 -12 -12 -12 -12 -11 -11 -12 -12 -12
-9 -9 -9 -9 -10 -10 -10 -10 -10 -10 -11 -11 -11 -11 -11 -12 -11 -12 -12 -12 -12 -12 -12 -11 -12 -12 -12
-9 -9 -9 -10 -10 -10 -10 -11 -11 -11 -11 -11 -11 -11 -11 -11 -12 -11 -11 -11 -12 -12 -12 -11 -11 -12 -13
-9 -9 -10 -10 -10 -11 -11 -11 -11 -11 -11 -11 -11 -11 -11 -11 -12 -13 -12 -12 -12 -12 -13 -12 -11 -12 -12

GFSFLT2_700_temp_081.txt.gz
Temp
-1 -2 -2 -2 -2 -3 -3 -3 -3 -3 -4 -4 -4 -4 -5 -4 -4 -4 -3 -3 -3 -3 -2 -2 -2 -2 -3
-2 -3 -2 -2 -3 -3 -4 -4 -5 -5 -4 -4 -5 -5 -5 -4 -4 -4 -4 -4 -3 -3 -3 -3 -4 -4 -5
-2 -2 -2 -3 -4 -4 -4 -4 -5 -4 -5 -5 -5 -5 -5 -5 -5 -5 -5 -4 -5 -5 -5 -6 -6 -6 -7
-3 -3 -3 -4 -4 -5 -5 -5 -5 -5 -5 -5 -5 -6 -6 -6 -6 -6 -7 -7 -7 -7 -7 -7 -7 -7 -7
-3 -4 -4 -4 -5 -5 -5 -5 -5 -5 -6 -6 -7 -8 -8 -9 -8 -8 -8 -8 -8 -8 -8 -8 -8 -8 -8
-3 -4 -4 -4 -5 -5 -5 -5 -6 -6 -8 -9 -8 -9 -9 -9 -9 -8 -8 -8 -8 -8 -8 -8 -8 -8 -8
-3 -4 -4 -5 -5 -6 -6 -7 -7 -7 -7 -9 -8 -9 -9 -9 -9 -9 -9 -9 -9 -9 -9 -9 -9 -9 -9
-4 -4 -5 -5 -6 -6 -6 -7 -7 -7 -7 -8 -8 -9 -9 -10 -10 -10 -10 -10 -10 -10 -10 -10 -10 -9 -9
-4 -5 -5 -5 -6 -6 -7 -7 -8 -9 -8 -8 -9 -9 -9 -10 -10 -11 -11 -11 -10 -10 -10 -10 -10 -10 -10
-5 -5 -6 -6 -6 -7 -7 -8 -8 -9 -9 -8 -9 -9 -8 -9 -10 -11 -11 -11 -11 -11 -11 -10 -11 -11 -10
-5 -6 -6 -6 -7 -7 -8 -8 -9 -9 -9 -8 -9 -9 -9 -8 -9 -10 -10 -10 -11 -11 -11 -11 -11 -11 -11
-6 -6 -7 -7 -7 -8 -8 -8 -9 -9 -10 -9 -9 -9 -9 -9 -9 -10 -10 -10 -10 -11 -11 -11 -11 -12 -12
-6 -7 -7 -8 -8 -8 -8 -9 -9 -10 -10 -10 -10 -10 -10 -10 -10 -10 -10 -10 -11 -10 -11 -11 -12 -12 -12
-7 -7 -8 -8 -8 -9 -9 -9 -10 -10 -11 -11 -11 -10 -10 -10 -10 -10 -11 -10 -11 -11 -11 -12 -12 -12 -12
-7 -8 -8 -9 -9 -9 -9 -10 -10 -10 -11 -11 -11 -11 -10 -11 -10 -11 -11 -11 -11 -11 -11 -11 -11 -12 -12
-8 -8 -9 -9 -10 -10 -10 -10 -10 -10 -11 -11 -11 -11 -10 -11 -11 -10 -11 -11 -11 -11 -11 -12 -11 -12 -12
-9 -9 -9 -9 -10 -10 -10 -10 -10 -11 -11 -11 -11 -11 -10 -10 -11 -12 -11 -11 -11 -12 -12 -12 -11 -12 -12

GFSFLT2_700_temp_084.txt.gz
Temp
-2 -2 -2 -2 -2 -2 -2 -3 -4 -4 -4 -4 -4 -4 -4 -4 -4 -4 -4 -4 -4 -4 -3 -4 -4 -4 -3
-3 -3 -3 -3 -3 -3 -3 -3 -4 -4 -4 -4 -4 -4 -4 -4 -4 -4 -3 -4 -4 -3 -4 -4 -5 -4 -5
-3 -3 -3 -3 -3 -3 -4 -4 -3 -4 -4 -3 -4 -4 -4 -4 -4 -5 -5 -5 -5 -5 -6 -6 -6 -6 -7
-4 -4 -4 -4 -4 -4 -3 -4 -4 -4 -4 -5 -5 -5 -5 -5 -6 -6 -6 -6 -6 -7 -7 -8 -8 -8 -8
-3 -3 -3 -3 -3 -3 -4 -4 -5 -5 -6 -6 -6 -6 -6 -7 -7 -7 -7 -7 -8 -8 -8 -8 -8 -8 -8
-3 -3 -3 -3 -4 -4 -5 -5 -6 -6 -6 -6 -7 -7 -7 -7 -7 -8 -8 -8 -8 -8 -9 -9 -8 -9 -9
-3 -3 -3 -4 -4 -5 -5 -6 -6 -6 -7 -8 -8 -8 -8 -8 -8 -9 -9 -9 -9 -9 -9 -9 -9 -9 -9
-3 -3 -4 -4 -5 -5 -6 -6 -6 -7 -7 -8 -8 -9 -9 -9 -9 -10 -9 -9 -9 -9 -9 -9 -9 -9 -9
-3 -3 -4 -5 -5 -6 -6 -7 -7 -7 -7 -8 -8 -9 -9 -9 -10 -10 -10 -10 -10 -10 -10 -9 -9 -9 -9
-3 -4 -4 -5 -6 -6 -7 -7 -7 -7 -8 -8 -8 -8 -8 -10 -10 -10 -10 -10 -10 -10 -10 -10 -10 -10 -10
-4 -5 -5 -6 -6 -7 -7 -7 -8 -8 -8 -8 -8 -8 -8 -8 -9 -10 -10 -10 -10 -11 -10 -10 -10 -10 -10
-5 -5 -6 -6 -7 -7 -7 -8 -8 -8 -9 -9 -9 -9 -9 -9 -9 -9 -10 -10 -10 -10 -10 -11 -11 -10 -11
-5 -6 -6 -7 -7 -8 -8 -8 -9 -9 -9 -9 -10 -10 -10 -10 -9 -10 -9 -9 -10 -10 -10 -11 -11 -11 -11
-6 -6 -7 -7 -8 -8 -8 -9 -9 -10 -10 -10 -10 -10 -10 -10 -10 -10 -10 -10 -10 -10 -10 -10 -11 -11 -11
-7 -7 -7 -8 -8 -8 -9 -9 -10 -10 -11 -11 -11 -10 -11 -11 -11 -11 -11 -11 -11 -10 -10 -10 -11 -11 -11
-7 -8 -8 -8 -9 -9 -9 -10 -10 -10 -11 -11 -11 -11 -11 -11 -11 -11 -11 -11 -11 -11 -11 -11 -10 -11 -12
-8 -8 -9 -9 -9 -10 -10 -10 -10 -10 -11 -11 -11 -11 -10 -11 -11 -12 -11 -11 -11 -11 -11 -11 -11 -11 -12

GFSFLT2_700_temp_087.txt.gz
Temp
-1 -1 -1 -2 -3 -3 -3 -3 -3 -3 -3 -4 -4 -4 -4 -4 -4 -4 -4 -4 -3 -4 -4 -4 -4 -4 -4
-1 -2 -2 -3 -3 -4 -4 -4 -3 -3 -3 -4 -4 -4 -4 -4 -4 -4 -4 -4 -4 -5 -5 -5 -5 -5 -5
-1 -3 -3 -3 -4 -4 -4 -4 -4 -3 -3 -3 -3 -3 -3 -4 -4 -4 -5 -5 -5 -6 -6 -6 -6 -7 -7
-1 -2 -3 -3 -3 -3 -3 -3 -3 -3 -3 -4 -4 -4 -4 -4 -4 -4 -4 -5 -6 -6 -7 -7 -8 -8 -8
-2 -2 -2 -2 -2 -3 -3 -3 -3 -4 -4 -4 -4 -4 -4 -5 -5 -5 -6 -6 -7 -7 -7 -7 -7 -8 -8
-1 -1 -1 -2 -2 -3 -3 -3 -4 -4 -4 -4 -5 -6 -6 -6 -6 -7 -7 -7 -7 -7 -8 -8 -8 -8 -8
-1 -1 -2 -2 -2 -3 -3 -4 -4 -4 -5 -6 -6 -7 -7 -6 -7 -7 -7 -7 -7 -8 -8 -8 -8 -9 -9
-1 -1 -1 -2 -3 -3 -4 -4 -5 -6 -6 -7 -7 -7 -7 -7 -7 -7 -8 -8 -8 -8 -8 -8 -9 -9 -9
-0 -1 -1 -2 -3 -4 -5 -5 -6 -6 -6 -7 -7 -7 -8 -8 -8 -8 -8 -8 -9 -9 -9 -9 -9 -9 -9
-1 -1 -2 -3 -4 -5 -5 -6 -6 -7 -7 -7 -8 -8 -8 -9 -9 -9 -9 -9 -9 -9 -9 -9 -9 -10 -10
-1 -2 -3 -4 -5 -6 -6 -6 -7 -7 -7 -8 -8 -8 -9 -9 -9 -10 -10 -10 -10 -10 -10 -10 -10 -10 -10
-2 -3 -4 -5 -6 -6 -7 -7 -7 -8 -8 -8 -9 -9 -9 -9 -9 -10 -10 -10 -10 -10 -10 -10 -10 -10 -10
-3 -4 -5 -5 -6 -7 -7 -7 -8 -8 -9 -9 -9 -9 -9 -9 -9 -10 -10 -10 -10 -10 -10 -10 -11 -11 -11
-4 -5 -5 -6 -7 -7 -8 -8 -8 -9 -9 -9 -9 -9 -10 -10 -10 -11 -11 -10 -11 -10 -10 -10 -11 -11 -11
-4 -5 -6 -7 -7 -8 -8 -9 -9 -10 -10 -11 -10 -10 -10 -10 -10 -11 -11 -11 -11 -11 -11 -10 -11 -11 -11
-5 -5 -7 -7 -8 -9 -9 -9 -10 -10 -11 -11 -11 -11 -11 -11 -11 -11 -12 -12 -12 -11 -11 -10 -10 -11 -11
-5 -6 -7 -8 -9 -9 -10 -10 -10 -11 -11 -11 -11 -11 -10 -11 -11 -12 -12 -12 -11 -11 -12 -11 -11 -11 -11

GFSFLT2_700_temp_090.txt.gz
Temp
0 -0 -1 -1 -1 -1 -2 -2 -2 -4 -3 -3 -3 -3 -3 -3 -3 -4 -3 -4 -4 -4 -4 -4 -4 -4 -4
-0 -1 -0 -0 -0 -1 -1 -1 -2 -2 -3 -3 -3 -3 -3 -3 -4 -4 -4 -4 -4 -4 -4 -4 -5 -5 -5
-1 -1 -1 -1 -1 -1 -1 -2 -2 -2 -2 -2 -2 -3 -3 -4 -4 -4 -4 -4 -4 -4 -5 -5 -6 -6 -6
-1 -1 -1 -1 -1 -1 -1 -2 -2 -2 -3 -3 -3 -4 -4 -4 -4 -4 -4 -4 -4 -5 -5 -6 -6 -7 -7
-1 -0 -0 -0 -1 -1 -1 -2 -2 -3 -3 -4 -4 -4 -4 -4 -4 -4 -5 -5 -5 -6 -6 -6 -7 -7 -7
-0 -0 -1 -0 -0 -1 -1 -2 -3 -3 -4 -4 -4 -4 -4 -4 -5 -5 -5 -6 -6 -6 -7 -7 -7 -7 -7
-1 -1 -0 -0 -0 -1 -1 -2 -3 -3 -4 -4 -5 -5 -5 -5 -6 -6 -6 -6 -6 -7 -7 -8 -8 -8 -8
-1 -1 -0 -0 -0 -1 -1 -2 -3 -4 -4 -5 -5 -6 -6 -6 -6 -7 -7 -7 -7 -8 -8 -8 -8 -8 -8
-1 -1 -0 -0 -0 -1 -2 -3 -4 -5 -5 -6 -6 -7 -7 -7 -7 -7 -8 -8 -8 -8 -8 -8 -8 -9 -9
-1 -1 -1 -1 -1 -2 -3 -4 -5 -6 -6 -6 -7 -7 -7 -8 -8 -9 -9 -9 -9 -9 -9 -9 -9 -9 -9
-1 -1 -1 -1 -2 -3 -4 -5 -6 -6 -6 -7 -7 -8 -8 -8 -9 -10 -10 -10 -10 -10 -10 -10 -9 -9 -9
-2 -2 -2 -2 -3 -4 -5 -6 -6 -7 -7 -7 -8 -8 -8 -8 -9 -9 -10 -10 -10 -10 -10 -10 -10 -10 -10
-2 -3 -3 -3 -4 -5 -6 -6 -7 -7 -8 -8 -8 -8 -9 -9 -8 -9 -9 -10 -10 -10 -10 -10 -10 -11 -10
-3 -3 -3 -4 -5 -6 -7 -7 -8 -8 -8 -9 -9 -9 -9 -9 -9 -9 -10 -10 -11 -11 -10 -10 -11 -11 -11
-4 -4 -4 -5 -5 -6 -7 -7 -8 -9 -10 -10 -9 -10 -10 -10 -10 -10 -10 -11 -11 -11 -11 -11 -11 -11 -11
-5 -5 -5 -5 -5 -6 -6 -7 -8 -9 -10 -10 -11 -11 -11 -11 -11 -11 -11 -12 -12 -12 -12 -11 -11 -12 -11
-5 -6 -6 -6 -6 -6 -6 -7 -8 -9 -10 -11 -11 -11 -11 -12 -12 -12 -12 -12 -12 -12 -12 -11 -11 -11 -11

GFSFLT2_700_temp_093.txt.gz
Temp
1 1 0 -0 -0 -1 -1 -0 -1 -1 -2 -1 -1 -2 -2 -2 -2 -2 -3 -3 -3 -4 -4 -4 -4 -4 -4
1 0 -0 -0 -1 -1 -0 -1 -1 -1 -1 -1 -1 -2 -2 -2 -2 -3 -3 -3 -4 -4 -3 -4 -4 -4 -4
1 0 -0 -0 -1 -1 -0 -0 -0 -1 -1 -1 -2 -2 -2 -3 -3 -3 -3 -3 -3 -3 -3 -4 -4 -4 -4
0 -0 -0 -0 -0 -0 -0 -0 -0 -0 -1 -2 -2 -3 -3 -4 -4 -4 -4 -4 -4 -4 -4 -4 -5 -5 -5
0 -0 -0 -0 -0 -0 -0 -0 -0 -0 -1 -2 -3 -3 -3 -4 -4 -4 -4 -4 -4 -4 -5 -5 -5 -5 -6
-0 -0 -0 -0 -0 -0 -0 -0 -0 -1 -2 -1 -3 -3 -4 -4 -4 -5 -5 -5 -5 -6 -6 -6 -6 -6 -6
-1 -1 -1 -0 -0 -0 -0 -0 -0 -1 -2 -2 -3 -4 -4 -5 -5 -5 -5 -6 -6 -6 -7 -7 -7 -7 -7
-1 -1 -1 -1 -1 -0 -0 -0 -1 -2 -3 -3 -4 -4 -5 -5 -6 -6 -6 -6 -7 -7 -7 -7 -7 -8 -8
-1 -1 -1 -1 -1 -1 -1 -1 -2 -3 -4 -4 -5 -5 -6 -6 -7 -7 -7 -7 -8 -8 -8 -8 -8 -8 -8
-1 -1 -1 -1 -1 -1 -1 -2 -3 -4 -4 -5 -6 -6 -6 -7 -7 -8 -8 -8 -8 -8 -8 -8 -9 -9 -9
-2 -2 -2 -2 -2 -2 -2 -3 -4 -5 -5 -6 -6 -7 -7 -7 -8 -9 -9 -9 -9 -9 -9 -9 -9 -10 -10
-2 -2 -2 -2 -2 -3 -3 -4 -5 -5 -6 -6 -7 -7 -7 -8 -8 -9 -9 -9 -9 -10 -9 -9 -10 -10 -10
-3 -3 -3 -3 -3 -3 -4 -4 -5 -6 -6 -7 -7 -8 -8 -8 -9 -9 -9 -10 -10 -10 -10 -10 -10 -11 -11
-3 -3 -3 -4 -4 -4 -4 -5 -5 -6 -6 -7 -7 -8 -9 -9 -9 -10 -10 -10 -11 -11 -10 -10 -11 -11 -11
-4 -4 -4 -4 -5 -5 -5 -5 -6 -7 -7 -7 -7 -8 -8 -9 -10 -11 -11 -11 -11 -11 -11 -11 -11 -11 -11
-4 -4 -5 -5 -5 -6 -6 -6 -7 -7 -8 -8 -8 -8 -9 -10 -11 -11 -12 -12 -12 -12 -12 -11 -11 -12 -11
-5 -5 -5 -6 -6 -6 -7 -7 -7 -8 -8 -8 -9 -9 -9 -9 -11 -12 -12 -13 -13 -13 -13 -13 -12 -12 -12

GFSFLT2_700_temp_096.txt.gz
Temp
1 1 1 1 -0 -0 -0 -0 -0 -0 -0 -1 -1 -1 -1 -1 -2 -2 -2 -2 -2 -2 -3 -3 -3 -2 -2
1 1 1 0 0 -0 -0 -0 -0 -0 -0 -0 -1 -1 -1 -2 -2 -2 -2 -3 -3 -3 -3 -3 -3 -3 -4
1 1 1 0 0 0 -0 0 0 -0 -0 -0 -1 -1 -1 -2 -2 -3 -3 -3 -3 -3 -4 -4 -4 -4 -4
0 0 0 0 0 0 0 0 0 -0 -0 -0 -1 -1 -2 -2 -2 -3 -3 -3 -4 -4 -4 -4 -4 -4 -4
0 0 0 0 0 -0 -0 -0 0 -0 -0 -0 -1 -1 -2 -2 -3 -3 -3 -4 -4 -4 -4 -4 -4 -4 -5
-0 -0 -0 -0 -0 -0 -0 -0 -0 -0 -0 -0 -1 -1 -2 -3 -3 -4 -4 -4 -5 -5 -5 -5 -5 -5 -6
-0 -1 -1 -1 -1 -1 -1 -0 -0 -0 -0 -1 -1 -2 -3 -4 -4 -5 -5 -5 -5 -6 -6 -6 -6 -6 -7
-1 -1 -1 -1 -1 -1 -1 -1 -1 -1 -1 -2 -2 -3 -4 -4 -5 -5 -5 -6 -6 -6 -6 -7 -7 -7 -7
-1 -1 -1 -1 -1 -1 -1 -1 -1 -1 -2 -3 -3 -4 -4 -5 -5 -6 -6 -6 -6 -7 -7 -7 -7 -7 -8
-2 -2 -1 -1 -1 -1 -1 -2 -2 -2 -3 -4 -4 -5 -5 -6 -6 -7 -7 -7 -7 -7 -8 -8 -8 -8 -8
-2 -2 -2 -2 -2 -2 -2 -2 -3 -3 -4 -4 -5 -6 -6 -6 -7 -7 -7 -8 -8 -8 -8 -9 -9 -9 -9
-2 -2 -2 -2 -2 -3 -3 -3 -3 -3 -4 -4 -5 -6 -6 -7 -8 -8 -9 -9 -9 -9 -9 -9 -9 -10 -10
-2 -2 -3 -3 -3 -3 -3 -4 -4 -4 -4 -5 -5 -6 -6 -7 -7 -8 -9 -9 -9 -10 -10 -10 -10 -10 -10
-3 -3 -3 -3 -3 -4 -4 -4 -5 -5 -5 -5 -6 -6 -7 -7 -7 -9 -9 -9 -10 -10 -10 -11 -11 -11 -11
-3 -3 -4 -4 -4 -4 -4 -5 -5 -5 -6 -6 -6 -7 -7 -7 -8 -9 -10 -10 -11 -11 -11 -11 -12 -12 -12
-4 -4 -4 -4 -4 -5 -5 -5 -6 -6 -6 -7 -7 -7 -7 -8 -9 -10 -11 -11 -12 -12 -13 -13 -13 -12 -13
-5 -5 -5 -5 -5 -5 -5 -6 -6 -7 -7 -8 -8 -8 -8 -9 -9 -11 -12 -12 -13 -13 -14 -14 -14 -13 -13

GFSFLT2_700_temp_099.txt.gz
Temp
1 1 1 1 1 1 1 1 0 0 0 -0 0 0 0 -0 -0 -1 -1 -1 -2 -2 -2 -2 -2 -3 -2
1 1 1 1 1 1 1 1 0 0 0 0 0 0 -0 -0 -1 -1 -1 -2 -2 -2 -3 -3 -3 -3 -3
1 1 0 1 1 0 0 1 0 0 0 0 0 0 -0 -0 -0 -1 -1 -2 -2 -2 -3 -3 -3 -3 -3
0 1 0 0 0 0 0 0 0 -0 0 0 0 -0 0 0 0 -0 -1 -2 -2 -3 -3 -3 -4 -4 -4
0 -0 -0 0 -0 -0 -0 -0 -0 -0 -0 0 -0 0 0 0 -0 -1 -2 -3 -3 -3 -4 -4 -4 -4 -5
-0 -0 -0 -0 -0 -0 -0 -0 -0 -0 -0 -0 0 0 -0 -1 -1 -2 -3 -3 -4 -4 -4 -5 -5 -5 -5
-0 -1 -1 -1 -1 -1 -1 -1 -1 -0 -0 -0 -0 -1 -1 -2 -2 -3 -3 -4 -4 -5 -5 -6 -6 -6 -6
-1 -1 -1 -1 -1 -1 -1 -1 -1 -1 -1 -1 -1 -1 -2 -3 -3 -4 -4 -5 -5 -5 -6 -6 -6 -7 -7
-1 -1 -1 -1 -1 -1 -1 -1 -1 -1 -1 -1 -2 -2 -3 -3 -4 -4 -5 -5 -5 -6 -6 -7 -7 -7 -7
-2 -2 -2 -1 -1 -1 -1 -1 -2 -2 -2 -2 -2 -3 -3 -4 -4 -5 -5 -6 -6 -7 -7 -7 -8 -8 -8
-2 -2 -2 -2 -2 -2 -2 -2 -2 -2 -2 -3 -3 -3 -4 -4 -5 -5 -6 -6 -7 -7 -7 -8 -8 -9 -9
-2 -2 -2 -2 -2 -2 -2 -2 -3 -3 -3 -3 -4 -4 -4 -5 -5 -6 -6 -7 -7 -8 -8 -9 -9 -10 -10
-3 -2 -3 -3 -3 -3 -3 -3 -3 -3 -3 -4 -4 -4 -5 -5 -6 -7 -7 -8 -8 -8 -9 -9 -9 -10 -10
-3 -3 -3 -3 -3 -3 -3 -3 -4 -4 -4 -4 -4 -5 -5 -6 -6 -7 -8 -8 -9 -9 -9 -9 -10 -10 -11
-4 -3 -3 -3 -4 -4 -4 -4 -4 -4 -5 -5 -5 -5 -6 -6 -7 -8 -8 -9 -9 -9 -10 -10 -11 -12 -12
-4 -4 -4 -4 -4 -4 -5 -5 -5 -5 -5 -5 -6 -6 -6 -7 -8 -9 -9 -9 -10 -10 -11 -11 -11 -13 -13
-5 -4 -5 -5 -5 -5 -5 -5 -5 -6 -6 -6 -6 -6 -7 -7 -8 -9 -9 -10 -10 -11 -12 -13 -12 -13 -14

GFSFLT2_700_temp_102.txt.gz
Temp
1 1 1 1 1 1 1 1 0 0 0 -0 -1 -0 -0 0 0 0 0 0 -0 -0 -1 -1 -1 -2 -2
0 1 0 1 1 1 1 1 1 0 -0 -0 -0 0 0 0 0 0 0 -0 -0 -1 -1 -1 -1 -2 -2
-0 0 0 1 1 1 1 0 0 0 0 0 0 0 0 0 0 0 0 -0 -0 -1 -1 -1 -2 -2 -3
-0 -0 0 0 0 0 0 0 0 0 -0 -0 -0 -0 -0 0 0 0 0 -0 -1 -1 -2 -2 -3 -3 -3
-0 -0 0 -0 -0 0 -0 -0 -0 -0 -0 -0 -0 -0 0 0 0 -0 -0 -1 -2 -2 -3 -3 -3 -4 -4
0 0 -1 -0 -0 -0 -0 -0 -0 -1 -1 -0 -0 0 -0 -0 -0 -1 -1 -2 -2 -3 -3 -4 -4 -4 -5
-0 -1 -1 -1 -1 -0 -1 -1 -1 -1 -0 -0 -0 -0 -0 -1 -1 -2 -2 -2 -3 -3 -4 -4 -5 -5 -5
-1 -1 -1 -1 -1 -1 -1 -1 -1 -1 -1 -1 -1 -1 -1 -2 -2 -2 -2 -3 -3 -4 -4 -5 -5 -6 -6
-1 -1 -1 -1 -1 -1 -1 -1 -1 -1 -1 -1 -1 -2 -2 -2 -2 -3 -3 -3 -4 -4 -5 -5 -6 -6 -7
-1 -1 -1 -1 -2 -2 -2 -2 -2 -2 -2 -2 -2 -2 -2 -3 -3 -3 -3 -4 -4 -5 -5 -5 -6 -7 -7
-2 -2 -2 -2 -2 -2 -2 -2 -2 -2 -2 -2 -3 -3 -3 -3 -4 -4 -4 -5 -5 -5 -6 -6 -7 -7 -7
-2 -2 -2 -2 -2 -2 -2 -2 -2 -2 -3 -3 -3 -3 -3 -4 -4 -5 -5 -5 -6 -6 -7 -7 -7 -8 -8
-3 -3 -3 -3 -3 -3 -3 -3 -3 -3 -3 -3 -3 -3 -4 -4 -5 -5 -6 -6 -7 -7 -7 -8 -8 -9 -9
-3 -3 -3 -3 -3 -3 -3 -3 -3 -3 -3 -4 -4 -4 -4 -5 -5 -6 -6 -7 -7 -7 -8 -8 -9 -9 -10
-4 -4 -4 -4 -4 -4 -4 -4 -4 -4 -4 -4 -4 -4 -5 -5 -6 -6 -7 -7 -7 -8 -8 -8 -9 -10 -11
-4 -4 -4 -4 -4 -4 -4 -4 -4 -4 -5 -5 -5 -5 -5 -6 -6 -7 -7 -7 -8 -8 -8 -8 -9 -11 -11
-5 -5 -5 -5 -5 -5 -5 -5 -5 -5 -5 -5 -5 -6 -6 -6 -7 -7 -7 -8 -8 -9 -9 -9 -10 -11 -11

GFSFLT2_700_temp_105.txt.gz
Temp
0 0 -1 -1 0 0 1 1 0 0 -0 -0 -1 -1 -1 -0 -0 0 0 0 0 0 -0 -0 -1 -1 -1
-0 -1 -1 -0 -0 0 0 0 0 0 -0 -0 -0 -0 -0 -0 0 0 0 0 -0 -0 -0 -0 -0 -1 -1
-0 -1 -0 -1 -0 0 -0 -0 -0 -0 -0 -0 -0 -0 -0 -0 -0 -0 0 0 0 -0 -0 -1 -1 -2 -2
-1 -0 -0 -1 -0 -0 -1 -0 -1 -1 -0 -0 -0 -0 -0 -0 -0 -0 0 -0 -0 -0 -1 -2 -2 -2 -3
-0 -0 -0 -1 -1 -1 -1 -0 -1 -1 -1 -1 -0 -0 -0 -0 -0 -0 -0 -0 -1 -1 -2 -2 -2 -3 -3
-0 -0 -1 -1 -1 -1 -1 -1 -1 -1 -1 -1 -1 -0 -0 -0 -0 -0 -1 -1 -1 -2 -2 -2 -3 -3 -3
-1 -1 -1 -1 -1 -1 -1 -1 -1 -1 -1 -1 -1 -1 -1 -0 -1 -1 -1 -2 -2 -2 -3 -3 -3 -4 -4
-1 -1 -2 -2 -1 -1 -1 -1 -1 -1 -1 -1 -1 -1 -1 -1 -1 -1 -2 -2 -2 -3 -3 -3 -4 -4 -5
-2 -2 -2 -2 -2 -1 -1 -1 -2 -1 -1 -1 -1 -1 -2 -2 -2 -2 -2 -3 -3 -3 -4 -4 -4 -5 -6
-3 -3 -2 -2 -2 -2 -2 -2 -2 -2 -2 -2 -2 -2 -2 -2 -3 -3 -3 -3 -3 -4 -4 -4 -5 -6 -6
-3 -2 -2 -2 -2 -2 -2 -2 -2 -2 -2 -2 -2 -2 -3 -3 -3 -3 -3 -3 -4 -4 -5 -5 -6 -6 -7
-3 -3 -3 -3 -2 -2 -2 -2 -3 -3 -3 -3 -3 -3 -3 -3 -3 -4 -4 -4 -4 -5 -5 -6 -6 -7 -7
-3 -3 -3 -3 -3 -3 -3 -3 -3 -3 -3 -3 -3 -3 -4 -4 -4 -5 -5 -4 -5 -6 -6 -7 -7 -7 -8
-4 -4 -3 -3 -3 -3 -3 -3 -3 -3 -3 -4 -4 -4 -4 -4 -5 -5 -5 -5 -5 -6 -6 -7 -7 -8 -8
-4 -4 -4 -4 -4 -4 -4 -4 -4 -4 -4 -4 -4 -4 -4 -5 -5 -5 -5 -6 -6 -6 -7 -7 -8 -8 -8
-5 -4 -5 -5 -5 -5 -5 -5 -5 -5 -5 -5 -5 -5 -5 -5 -5 -6 -6 -6 -6 -7 -7 -7 -8 -9 -9
-5 -5 -5 -5 -5 -5 -5 -5 -5 -5 -5 -5 -6 -6 -6 -6 -6 -7 -6 -6 -7 -7 -7 -8 -8 -9 -9

GFSFLT2_700_temp_108.txt.gz
Temp
3 2 1 -1 0 -0 0 -1 -0 0 0 0 -0 -0 -0 -1 -1 -1 -1 -0 -0 -1 -0 -0 -0 -0 -0
2 1 1 -1 0 -1 -1 -1 -1 -0 -0 -0 -0 -0 -0 -0 -0 -0 -0 -0 -1 -0 -0 -0 -0 -0 -1
2 1 1 0 -1 -1 -1 -1 -1 -0 -0 -0 -0 -0 -0 -0 -0 -0 -1 -0 -0 -0 -0 -0 -1 -1 -1
1 -0 1 -1 -2 -2 -1 -1 -1 -1 -1 -1 -0 -0 -0 -0 -1 -1 -0 -0 -0 -0 -0 -1 -1 -2 -2
0 0 -1 -1 -1 -2 -2 -1 -1 -1 -1 -1 -1 -1 -1 -1 -1 -0 -0 -0 -0 -1 -1 -1 -2 -2 -2
-0 -2 -2 -2 -2 -2 -1 -1 -1 -1 -1 -1 -1 -1 -1 -1 -0 -0 -0 -1 -1 -1 -1 -1 -2 -2 -2
-1 -2 -1 -1 -2 -1 -2 -2 -2 -1 -1 -1 -1 -1 -1 -1 -1 -1 -1 -1 -1 -1 -2 -2 -2 -3 -3
-1 -1 -2 -2 -2 -2 -2 -2 -1 -2 -2 -1 -1 -1 -1 -1 -1 -1 -1 -1 -2 -2 -2 -3 -3 -3 -4
-2 -2 -2 -2 -3 -3 -2 -2 -2 -2 -2 -2 -2 -2 -1 -1 -2 -2 -2 -2 -2 -2 -3 -3 -3 -4 -4
-2 -2 -3 -3 -3 -3 -2 -2 -2 -2 -2 -2 -2 -2 -2 -2 -2 -2 -2 -3 -3 -3 -3 -3 -4 -4 -5
-3 -3 -3 -3 -3 -3 -2 -2 -2 -2 -2 -2 -2 -2 -2 -3 -3 -3 -3 -3 -3 -3 -4 -4 -4 -5 -6
-4 -4 -3 -3 -3 -3 -3 -3 -3 -3 -3 -3 -3 -3 -3 -3 -3 -3 -3 -4 -3 -4 -4 -4 -5 -5 -6
-4 -4 -3 -3 -3 -3 -3 -3 -3 -3 -3 -3 -3 -3 -3 -3 -4 -4 -4 -4 -4 -4 -5 -5 -5 -6 -6
-4 -4 -4 -4 -4 -4 -4 -4 -4 -4 -4 -4 -4 -4 -4 -4 -4 -4 -4 -4 -4 -4 -5 -6 -6 -6 -7
-5 -5 -4 -4 -4 -4 -4 -4 -4 -4 -4 -4 -4 -4 -4 -4 -5 -5 -5 -5 -5 -5 -6 -6 -7 -7 -7
-6 -5 -5 -5 -5 -5 -5 -5 -5 -5 -5 -5 -5 -5 -5 -5 -5 -5 -6 -5 -6 -6 -6 -6 -7 -7 -7
-5 -5 -5 -5 -5 -6 -6 -6 -6 -5 -5 -5 -5 -5 -5 -6 -6 -6 -7 -6 -6 -7 -7 -7 -7 -8 -8

GFSFLT2_700_temp_111.txt.gz
Temp
1 1 1 2 1 0 -0 -1 -0 -1 -1 -1 -0 -0 -0 -1 -1 -1 -1 -1 -1 -1 -0 -0 0 0 0
1 1 1 1 1 0 -1 -2 -1 -1 -1 -1 -1 -0 -0 -0 -1 -1 -1 -1 -1 -1 -0 -0 -0 0 -0
0 0 1 1 -0 -1 -2 -2 -2 -2 -2 -1 -1 -1 -0 -0 -1 -0 -0 -1 -1 -1 -0 -0 -0 -0 -1
0 0 0 -0 -1 -2 -2 -2 -3 -2 -2 -1 -1 -1 -0 -0 -1 -1 -1 -0 -1 -1 -0 -0 -1 -1 -1
-0 -0 -1 -1 -2 -2 -3 -2 -2 -2 -2 -2 -1 -1 -0 -0 -1 -1 -1 -1 -1 -0 -1 -1 -1 -1 -1
-1 -1 -2 -2 -3 -2 -3 -3 -3 -3 -2 -2 -1 -1 -1 -1 -1 -1 -1 -1 -0 -1 -1 -1 -1 -1 -2
-1 -1 -2 -3 -4 -3 -2 -2 -2 -2 -2 -2 -1 -1 -1 -1 -1 -1 -1 -1 -1 -1 -1 -2 -2 -2 -2
-1 -2 -2 -2 -3 -2 -2 -2 -2 -2 -2 -2 -2 -2 -1 -1 -1 -1 -1 -1 -1 -2 -2 -2 -2 -2 -3
-1 -1 -2 -2 -2 -2 -2 -3 -3 -2 -2 -2 -2 -2 -2 -2 -2 -2 -2 -2 -2 -2 -2 -2 -3 -3 -3
-2 -2 -2 -3 -3 -3 -3 -3 -3 -3 -2 -2 -2 -2 -2 -2 -2 -2 -2 -2 -2 -3 -3 -3 -3 -3 -4
-4 -3 -3 -4 -4 -4 -4 -3 -3 -3 -3 -3 -2 -2 -3 -2 -2 -2 -2 -3 -3 -3 -3 -3 -4 -4 -4
-5 -5 -5 -4 -4 -4 -3 -3 -3 -3 -3 -3 -3 -3 -3 -3 -3 -3 -3 -3 -3 -3 -3 -4 -4 -4 -5
-6 -5 -5 -5 -4 -4 -4 -3 -3 -3 -3 -3 -3 -3 -3 -3 -4 -4 -4 -3 -3 -4 -4 -4 -5 -5 -5
-6 -5 -5 -5 -4 -4 -4 -4 -4 -3 -4 -4 -4 -4 -4 -4 -4 -4 -4 -4 -4 -4 -4 -5 -5 -5 -5
-6 -5 -5 -5 -5 -5 -4 -4 -4 -4 -4 -4 -4 -4 -4 -4 -5 -5 -5 -5 -4 -4 -5 -5 -5 -6 -6
-6 -6 -6 -6 -6 -5 -5 -5 -5 -5 -5 -5 -5 -5 -5 -5 -5 -5 -6 -6 -6 -6 -6 -6 -6 -7 -6
-6 -6 -7 -7 -6 -6 -7 -6 -6 -5 -5 -5 -5 -5 -6 -6 -6 -6 -6 -6 -6 -7 -7 -7 -8 -9 -8

GFSFLT2_700_temp_114.txt.gz
Temp
-0 -0 -0 0 1 1 1 1 0 -1 -1 -2 -2 -1 -1 -1 -1 -1 -1 -2 -1 -1 -1 -1 -0 -0 0
0 0 0 0 0 0 0 -1 -2 -2 -2 -2 -2 -2 -1 -1 -1 -1 -2 -2 -1 -1 -1 -0 -0 -0 -0
0 1 0 0 0 -0 0 -1 -2 -3 -3 -2 -3 -2 -2 -1 -1 -1 -1 -1 -1 -1 -1 -1 -0 -0 -0
1 0 0 0 -0 -0 -1 -3 -3 -3 -2 -3 -3 -3 -2 -1 -1 -1 -1 -1 -1 -1 -1 -1 -0 -0 -0
1 1 0 -0 -0 -1 -2 -3 -3 -3 -3 -3 -2 -2 -2 -1 -1 -1 -1 -1 -1 -1 -1 -1 -1 -1 -1
1 1 0 -1 -1 -2 -3 -3 -3 -3 -4 -4 -3 -3 -2 -2 -1 -1 -2 -1 -1 -1 -1 -1 -1 -1 -1
1 0 -0 -1 -1 -2 -3 -4 -3 -4 -4 -3 -3 -3 -2 -2 -2 -2 -2 -1 -1 -1 -1 -1 -1 -1 -1
0 -0 -1 -3 -4 -5 -5 -5 -5 -4 -4 -3 -3 -3 -3 -2 -2 -2 -2 -1 -1 -1 -1 -2 -2 -2 -2
-0 -1 -2 -3 -4 -5 -5 -5 -4 -3 -4 -4 -3 -3 -3 -2 -2 -2 -2 -2 -2 -2 -2 -2 -2 -2 -2
-2 -3 -3 -3 -4 -4 -4 -4 -4 -4 -4 -4 -4 -3 -3 -2 -2 -2 -2 -2 -2 -2 -2 -3 -3 -3 -3
-3 -4 -4 -4 -4 -4 -4 -4 -4 -4 -4 -4 -3 -3 -3 -3 -2 -2 -3 -3 -3 -3 -3 -3 -3 -3 -3
-5 -5 -6 -5 -5 -5 -5 -5 -5 -5 -4 -4 -3 -3 -3 -3 -3 -3 -3 -3 -3 -3 -4 -4 -4 -4 -4
-7 -7 -7 -6 -6 -5 -5 -5 -4 -4 -4 -3 -3 -3 -3 -4 -4 -4 -4 -4 -4 -4 -4 -4 -4 -4 -4
-7 -6 -6 -6 -5 -5 -5 -4 -4 -4 -4 -4 -4 -4 -4 -4 -4 -4 -4 -4 -4 -4 -4 -5 -5 -5 -5
-6 -6 -6 -6 -5 -5 -5 -5 -5 -5 -5 -5 -5 -5 -5 -5 -5 -5 -5 -5 -4 -5 -5 -5 -5 -5 -5
-6 -7 -7 -6 -6 -6 -6 -5 -5 -6 -6 -6 -5 -5 -5 -5 -5 -5 -5 -5 -5 -5 -5 -6 -6 -6 -6
-7 -7 -7 -6 -6 -6 -6 -6 -7 -6 -7 -6 -6 -6 -6 -6 -6 -6 -6 -6 -6 -6 -6 -7 -7 -7 -7

GFSFLT2_700_temp_117.txt.gz
Temp
0 0 1 0 0 0 0 0 -0 0 -0 -0 -2 -2 -2 -2 -2 -1 -1 -1 -2 -5 -2 -2 -1 -1 -1
1 0 0 0 0 0 0 0 -0 -0 -1 -2 -3 -2 -2 -3 -3 -2 -1 -1 -1 -2 -2 -2 -1 -1 -1
1 1 1 1 1 0 0 -0 -0 -1 -2 -2 -3 -3 -3 -3 -2 -2 -1 -1 -2 -1 -1 -1 -1 -1 -1
1 1 1 1 1 0 -0 -0 -1 -2 -3 -3 -4 -3 -3 -3 -3 -2 -2 -1 -1 -1 -1 -1 -1 -1 -1
1 1 1 1 1 0 -0 -1 -2 -2 -4 -4 -3 -4 -4 -4 -3 -3 -2 -2 -1 -1 -1 -1 -1 -1 -1
1 1 1 1 1 -0 -1 -3 -3 -4 -4 -3 -4 -4 -5 -5 -4 -3 -2 -2 -2 -1 -2 -1 -1 -1 -1
1 1 1 1 0 -1 -3 -4 -4 -4 -5 -4 -4 -5 -5 -4 -4 -3 -3 -2 -2 -2 -2 -2 -1 -1 -1
1 1 1 0 -1 -3 -5 -5 -5 -5 -5 -4 -5 -5 -4 -4 -4 -3 -3 -2 -2 -2 -2 -2 -1 -2 -2
-0 -0 -0 -1 -1 -3 -6 -6 -5 -5 -5 -5 -5 -4 -4 -4 -4 -3 -3 -3 -2 -2 -2 -2 -2 -2 -2
-1 -1 -1 -2 -2 -3 -5 -6 -6 -6 -6 -5 -5 -5 -4 -4 -3 -3 -3 -3 -2 -2 -2 -2 -3 -3 -3
-2 -2 -2 -3 -3 -4 -4 -5 -6 -6 -6 -6 -5 -5 -4 -4 -3 -3 -3 -3 -2 -3 -3 -3 -3 -3 -3
-3 -4 -5 -7 -6 -7 -6 -6 -6 -6 -6 -5 -5 -4 -4 -4 -3 -3 -4 -3 -3 -3 -4 -4 -4 -4 -4
-5 -6 -7 -8 -7 -6 -6 -6 -6 -6 -5 -5 -4 -4 -4 -4 -4 -5 -4 -4 -4 -4 -4 -4 -4 -4 -4
-5 -6 -6 -6 -6 -6 -6 -5 -5 -5 -5 -5 -5 -5 -4 -4 -4 -4 -4 -4 -5 -5 -5 -5 -5 -5 -5
-5 -6 -6 -6 -6 -6 -6 -5 -5 -5 -5 -5 -5 -5 -5 -6 -5 -5 -5 -5 -5 -5 -5 -5 -5 -5 -5
-6 -6 -6 -6 -7 -7 -6 -6 -6 -6 -5 -5 -6 -6 -5 -6 -6 -5 -5 -6 -5 -6 -6 -6 -6 -6 -6
-6 -7 -6 -7 -7 -7 -7 -6 -6 -6 -6 -6 -6 -6 -7 -6 -6 -6 -6 -6 -6 -6 -6 -6 -7 -6 -6

GFSFLT2_700_temp_120.txt.gz
Temp
1 1 1 1 1 0 0 0 0 0 0 -0 -1 -1 -2 -2 -2 -2 -2 -1 -2 -1 -1 -2 -2 -2 -3
1 1 1 1 1 1 1 1 0 -0 -0 -0 -1 -2 -2 -3 -2 -2 -2 -2 -2 -2 -2 -4 -4 -2 -2
1 1 1 1 1 1 1 1 0 -0 -1 -1 -3 -3 -4 -3 -4 -3 -3 -3 -2 -2 -2 -2 -2 -2 -2
1 1 1 1 1 1 1 1 0 -0 -1 -2 -3 -3 -3 -3 -3 -3 -3 -3 -3 -2 -2 -2 -2 -1 -1
1 1 1 1 1 1 1 1 1 -0 -2 -3 -3 -3 -4 -3 -4 -4 -4 -4 -3 -3 -2 -2 -2 -2 -2
1 1 1 1 1 1 1 1 -0 -3 -4 -4 -4 -4 -4 -4 -4 -4 -5 -4 -4 -3 -3 -2 -2 -2 -2
1 1 0 1 1 1 0 -0 -2 -4 -5 -4 -4 -4 -5 -5 -5 -6 -6 -5 -4 -3 -3 -2 -2 -2 -2
0 0 0 0 0 0 0 -1 -4 -6 -5 -5 -5 -5 -4 -4 -5 -5 -5 -5 -4 -3 -3 -3 -2 -2 -2
-0 -0 -0 -0 -0 -0 -0 -2 -5 -5 -5 -4 -5 -5 -5 -6 -5 -5 -5 -5 -4 -3 -3 -3 -3 -2 -2
-1 -1 -1 -1 -1 -1 -2 -2 -5 -6 -6 -6 -5 -5 -6 -6 -5 -5 -5 -4 -4 -3 -3 -3 -2 -2 -3
-2 -2 -2 -2 -2 -3 -3 -4 -5 -6 -7 -7 -7 -7 -6 -6 -5 -5 -4 -4 -3 -3 -3 -2 -3 -3 -3
-2 -3 -3 -3 -4 -4 -5 -6 -6 -6 -7 -7 -7 -7 -6 -5 -5 -4 -4 -4 -3 -4 -4 -3 -4 -4 -4
-3 -4 -4 -5 -5 -5 -6 -6 -6 -6 -6 -6 -6 -6 -5 -5 -4 -4 -4 -4 -5 -5 -4 -4 -4 -4 -4
-4 -4 -5 -6 -6 -5 -6 -6 -6 -5 -5 -5 -5 -5 -5 -4 -4 -5 -5 -4 -5 -5 -4 -5 -5 -5 -5
-5 -5 -6 -6 -6 -6 -6 -6 -6 -5 -5 -5 -5 -5 -5 -5 -5 -5 -5 -5 -5 -5 -5 -5 -5 -5 -5
-5 -6 -6 -6 -6 -6 -6 -6 -6 -6 -6 -5 -5 -5 -5 -5 -5 -6 -6 -6 -5 -6 -6 -6 -6 -6 -6
-6 -6 -6 -6 -6 -7 -7 -7 -7 -7 -6 -7 -6 -6 -6 -6 -6 -7 -7 -6 -6 -6 -6 -6 -6 -6 -7